                ,  0.300,  0.400,  0.500,  0.600,  0.700,  0.800,  0.900,  1.000,  1.100,  1.200,  1.300,  1.400,  1.500,  1.600,  1.700,  1.800,  1.900,  2.000,  2.100,  2.200,  2.300,  2.400,  2.500,  2.600,  2.700,  2.800,  2.900,  3.000,  3.100,  3.200,  3.300,  3.400,  3.500,  3.600,  3.700,  3.800,  3.900,  4.000,  4.100,  4.200,  4.300,  4.400,  4.500,  4.600,  4.700,  4.800,  4.900,  5.000,  5.100,  5.200,  5.300,  5.400,  5.500,  5.600,  5.700,  5.800,  5.900,  6.000
1994/02/27 00:00,  999.0,   -3.8,  999.0,  999.0,   -4.3,   -4.2,   -4.1,   -3.8,   -3.4,   -3.3,   -3.2,   -4.3,   -4.2,   -4.1,   -3.9,   -4.6,   -4.7,   -4.7,   -4.6,   -4.5,   -4.3,   -3.9,   -3.6,   -3.5,   -3.5,   -3.8,   -3.1,   -3.6,  999.0,  999.0,   -7.1,   -7.4,   -7.4,   -7.6,   -7.5,   -7.8,   -8.2,   -8.3,   -7.6,   -6.0,  999.0,   -5.4,   -4.6,   -5.2,   -3.3,   -2.5,   -2.7,   -2.5,   -2.1,   -1.9,   -1.8,   -1.8,   -1.9,   -1.8,  999.0,  999.0,  999.0,   -1.6
1994/02/27 00:10,   -4.3,   -4.5,   -4.8,   -4.9,   -4.8,   -4.7,   -4.6,   -4.5,   -4.4,   -4.4,   -4.2,   -4.1,   -3.6,   -3.6,   -2.9,   -3.2,   -3.4,   -3.3,   -3.5,   -3.9,   -3.6,   -3.8,   -4.0,   -3.8,   -4.5,   -6.2,   -6.7,   -6.4,   -6.4,   -6.5,   -6.5,   -6.5,   -6.5,   -6.4,   -6.3,   -6.2,   -7.2,   -6.0,   -5.7,   -4.5,   -3.8,   -1.8,   -2.1,   -1.7,   -1.4,   -1.3,   -1.3,   -1.4,   -1.4,   -1.3,   -1.2,   -1.2,   -1.0,   -1.2,   -1.6,   -1.2,   -1.3,   -0.7
1994/02/27 00:20,   -2.9,   -3.0,   -2.9,   -2.8,   -2.8,   -2.7,   -2.7,   -3.0,   -3.4,   -3.2,   -3.1,   -3.1,   -2.9,   -2.6,   -2.3,   -2.3,   -1.8,   -2.3,   -2.8,   -3.0,   -3.3,   -3.1,   -2.4,   -2.2,   -2.0,   -1.8,   -1.2,   -1.0,   -0.7,  999.0,   -1.3,  999.0,  999.0,  999.0,  999.0,  999.0,  999.0,  999.0,  999.0,  999.0,  999.0,  999.0,  999.0,  999.0,  999.0,  999.0,  999.0,  999.0,   -1.1,  999.0,  999.0,  999.0,  999.0,  999.0,  999.0,   -1.3,   -1.0,   -0.9
1994/02/27 00:30,   -4.2,   -4.4,   -4.3,   -4.0,   -3.7,   -3.6,   -3.8,   -3.8,   -3.7,   -3.7,   -3.4,   -3.3,   -2.9,   -2.7,   -2.7,   -2.2,   -2.4,   -2.7,   -2.1,   -2.0,   -4.1,   -2.1,   -4.2,   -4.0,   -4.2,   -4.0,   -3.7,   -3.7,   -3.7,   -3.8,   -3.8,   -3.5,   -2.8,   -2.2,   -2.5,   -2.3,   -1.4,   -1.6,   -1.3,   -0.9,   -1.3,   -2.1,   -2.5,   -2.0,   -1.2,  999.0,  999.0,  999.0,  999.0,  999.0,  999.0,  999.0,  999.0,  999.0,  999.0,  999.0,  999.0,  999.0
1994/02/27 00:40,   -4.4,   -4.2,   -4.3,   -4.4,   -4.3,   -4.2,   -4.0,   -4.1,   -4.1,   -4.0,   -4.1,   -4.1,   -4.1,   -4.2,   -4.2,   -4.3,   -4.5,   -4.4,   -4.3,   -4.2,   -4.2,   -4.3,   -4.2,   -4.1,   -4.2,   -4.2,   -4.1,   -4.0,   -3.9,   -3.6,   -3.3,   -3.3,   -3.1,   -3.1,   -2.8,   -2.4,   -2.1,   -2.0,   -1.5,   -1.7,   -1.9,   -1.8,   -1.4,  999.0,  999.0,   -1.4,   -1.7,  999.0,  999.0,  999.0,  999.0,  999.0,  999.0,   -0.5,  999.0,  999.0,  999.0,  999.0
1994/02/27 00:50,   -4.7,   -4.6,   -4.5,   -4.5,   -4.5,   -4.4,   -4.4,   -4.5,   -4.5,   -4.5,   -4.5,   -4.5,   -4.5,   -4.4,   -4.5,   -4.6,   -4.5,   -4.5,   -4.7,   -4.6,   -4.7,   -5.6,   -5.5,   -5.4,   -5.2,   -5.1,   -5.1,   -5.0,   -5.0,   -4.8,   -4.8,   -4.7,   -4.6,   -4.5,   -4.3,   -4.8,   -4.4,   -4.4,   -4.6,   -4.2,   -3.9,   -3.4,   -3.7,   -3.1,   -3.0,   -2.9,   -2.7,   -2.6,   -2.4,   -2.2,   -1.9,   -1.6,   -1.4,   -1.3,   -1.0,   -0.8,   -1.2,   -1.0
1994/02/27 01:00,   -5.3,   -5.4,   -5.5,   -5.4,   -5.7,   -5.9,   -5.9,   -6.1,   -6.2,   -6.5,   -6.4,   -6.4,   -6.3,   -6.3,   -6.4,   -6.4,   -6.5,   -6.5,   -6.6,   -6.6,   -6.7,   -6.8,   -6.8,   -6.7,   -6.7,   -6.8,   -6.8,   -6.9,   -6.8,   -6.9,   -6.9,   -7.5,   -6.9,   -6.7,   -6.7,   -6.7,   -6.6,   -6.5,   -6.1,   -5.5,   -4.4,   -4.0,   -3.9,   -3.4,   -2.8,   -2.5,   -2.3,   -2.4,   -2.1,   -1.9,   -1.4,   -1.2,   -1.0,   -0.8,   -0.7,   -0.6,   -0.5,   -0.6
1994/02/27 01:10,   -6.9,   -6.9,   -6.9,   -6.9,   -6.9,   -6.9,   -7.0,   -7.0,   -7.1,   -7.0,   -7.0,   -7.0,   -7.1,   -7.2,   -7.2,   -7.2,   -7.3,   -7.4,   -7.3,   -7.3,   -7.5,   -7.5,   -7.5,   -7.7,   -7.8,   -7.9,   -7.9,   -8.1,   -8.2,   -8.3,   -8.3,   -8.4,   -8.4,   -8.5,   -8.5,   -8.7,   -8.6,   -8.2,   -7.4,   -6.2,  999.0,  999.0,   -2.8,   -2.5,   -2.2,   -2.0,   -1.9,   -1.9,   -1.8,   -1.7,   -1.5,   -1.4,   -1.3,   -1.1,   -1.1,   -1.1,   -1.0,   -1.3
1994/02/27 01:20,   -6.6,   -6.6,   -6.6,   -6.7,   -6.7,   -6.7,   -6.8,   -6.9,   -6.9,   -7.0,   -7.1,   -7.1,   -7.2,   -7.3,   -7.4,   -7.5,   -7.5,   -7.5,   -7.5,   -7.5,   -7.6,   -7.5,   -7.7,   -7.7,   -7.7,   -7.7,   -7.9,   -8.2,   -8.4,   -8.3,   -8.4,   -8.5,   -8.3,   -8.4,   -8.4,   -8.5,   -8.5,   -8.0,   -6.7,   -5.4,   -4.3,   -3.5,   -3.1,   -2.6,   -2.4,   -2.3,   -2.3,   -2.2,   -2.1,   -1.9,   -1.8,   -1.7,   -1.5,   -1.5,   -1.5,   -1.5,   -1.5,   -1.5
1994/02/27 01:30,   -6.8,   -6.8,   -6.9,   -7.0,   -7.1,   -7.3,   -7.5,   -7.6,   -7.6,   -7.6,   -7.7,   -7.7,   -7.8,   -7.9,   -8.0,   -8.0,   -8.1,   -8.1,   -8.1,   -8.1,   -8.2,   -8.3,   -8.4,   -8.5,   -8.6,   -8.7,   -8.9,   -8.9,   -8.8,   -8.8,   -8.7,   -8.7,   -8.7,   -8.7,   -8.7,   -8.5,   -8.2,   -7.6,   -6.0,   -4.6,   -3.7,   -3.4,   -2.6,   -2.2,   -1.9,   -2.0,   -1.9,   -1.9,   -1.8,   -1.8,   -1.7,   -1.7,   -1.7,   -1.7,   -1.6,   -1.6,   -1.5,   -1.5
1994/02/27 01:40,   -6.1,   -6.0,   -6.1,   -6.3,   -6.2,   -6.4,   -6.4,   -6.5,   -6.5,   -6.5,   -6.5,   -6.5,   -6.6,   -6.8,   -6.8,   -6.9,   -6.9,   -6.9,   -6.8,   -6.8,   -6.7,   -6.7,   -6.7,   -6.7,   -6.7,   -6.6,   -6.6,   -6.7,   -6.9,   -6.9,   -6.9,   -6.9,   -6.9,   -7.1,   -7.1,   -7.0,   -7.5,   -7.3,   -6.7,   -5.2,   -4.0,   -3.0,   -2.4,   -1.7,   -1.6,   -1.7,   -1.7,   -1.6,   -1.7,   -1.7,   -1.6,   -1.5,   -1.5,   -1.4,   -1.5,   -1.4,   -1.4,   -1.3
1994/02/27 01:50,   -6.4,   -6.3,   -6.4,   -6.3,   -6.2,   -6.2,   -6.1,   -6.1,   -6.2,   -6.2,   -6.2,   -6.2,   -6.2,   -6.3,   -6.4,   -6.5,   -6.6,   -6.4,   -6.7,   -6.7,   -6.8,   -6.8,   -6.9,   -6.9,   -6.9,   -7.0,   -7.0,   -7.4,   -7.0,   -7.1,   -7.4,   -7.2,   -7.1,   -7.2,   -7.3,   -7.5,   -7.6,   -7.4,   -6.9,   -5.5,   -3.9,   -2.9,   -2.4,   -2.1,   -1.9,   -1.5,   -1.6,   -0.6,  999.0,   -0.7,  999.0,  999.0,   -0.8,   -0.0,   -1.2,  999.0,   -1.0,   -0.8
1994/02/27 02:00,   -4.7,   -4.5,   -4.2,   -4.2,   -4.4,   -4.1,   -4.0,   -4.0,   -4.0,   -4.0,   -3.8,   -3.8,   -4.3,   -4.3,   -4.5,   -4.9,   -4.3,   -4.2,   -4.4,   -4.2,   -4.1,   -4.4,   -4.3,   -4.2,   -4.1,   -4.0,   -4.0,   -3.9,   -4.0,   -4.3,   -4.0,   -4.1,   -3.9,   -4.3,   -4.2,   -4.2,   -4.1,   -4.1,   -3.9,   -4.2,   -3.6,   -2.6,   -2.0,   -1.5,   -1.5,  999.0,  999.0,  999.0,  999.0,   -0.4,  999.0,  999.0,  999.0,  999.0,  999.0,  999.0,  999.0,  999.0
1994/02/27 02:10,   -5.5,   -5.1,   -4.9,   -5.8,   -5.9,   -6.0,   -6.2,   -6.3,   -6.4,   -5.8,   -5.7,   -5.7,   -5.8,   -5.9,   -5.9,   -5.9,   -5.8,   -5.8,   -5.8,   -5.9,   -5.9,   -5.9,   -6.0,   -5.8,   -5.8,   -6.0,   -6.0,   -6.0,   -6.0,   -5.9,   -5.9,   -5.9,   -6.5,   -6.1,   -6.0,   -5.9,   -6.1,   -5.6,   -5.8,   -4.9,   -3.5,   -2.6,   -2.3,   -2.1,   -1.9,   -1.5,   -2.0,   -1.9,   -1.6,   -1.6,   -1.4,   -1.3,   -0.6,   -0.6,   -0.8,   -0.4,  999.0,  999.0
1994/02/27 02:20,   -5.1,   -5.1,   -5.1,   -5.1,   -5.2,   -5.2,   -5.2,   -5.2,   -5.1,   -5.0,   -5.1,   -5.1,   -5.1,   -5.2,   -5.1,   -5.1,   -5.1,   -5.2,   -5.3,   -5.3,   -5.3,   -5.3,   -5.3,   -5.2,   -5.3,   -5.3,   -5.2,   -5.4,   -5.5,   -5.7,   -5.5,   -5.5,   -5.6,   -5.6,   -5.7,   -6.3,   -5.9,   -6.6,   -6.4,   -5.7,   -3.5,   -2.4,   -2.0,   -1.6,   -1.2,   -1.2,   -1.2,   -1.2,   -1.5,   -1.3,   -1.2,   -0.9,  999.0,  999.0,   -1.5,  999.0,  999.0,  999.0
1994/02/27 02:30,   -4.8,   -4.6,   -4.7,   -4.7,   -4.8,   -4.8,   -4.8,   -4.8,   -4.8,   -4.7,   -4.7,   -4.6,   -4.5,   -4.5,   -4.5,   -4.5,   -4.5,   -4.4,   -4.3,   -4.2,   -4.2,   -4.2,   -4.1,   -4.0,   -4.1,   -4.0,   -4.0,   -4.0,   -3.9,   -3.8,   -3.7,   -3.6,   -3.6,   -3.5,   -4.0,   -4.2,   -4.7,   -4.8,   -4.7,   -4.9,   -3.3,   -2.4,   -1.7,   -2.0,   -2.0,  999.0,   -0.7,  999.0,  999.0,  999.0,  999.0,  999.0,  999.0,  999.0,  999.0,  999.0,  999.0,  999.0
1994/02/27 02:40,   -4.9,   -5.0,   -5.0,   -5.1,   -5.1,   -5.1,   -5.0,   -4.8,   -4.7,   -4.6,   -4.5,   -4.5,   -4.5,   -4.4,   -4.3,   -4.3,   -4.2,   -4.2,   -4.1,   -4.1,   -3.9,   -3.9,   -3.7,   -3.6,   -3.9,   -4.0,   -4.6,   -4.4,   -5.0,   -4.9,   -4.7,   -4.9,   -4.2,   -5.0,   -4.9,   -4.7,   -4.5,   -4.7,   -4.7,   -4.4,   -3.8,   -2.5,   -2.2,   -2.1,   -1.5,   -1.5,   -1.5,   -1.2,   -1.2,   -1.0,   -1.1,   -1.0,   -1.4,  999.0,   -1.2,  999.0,  999.0,  999.0
1994/02/27 02:50,   -4.9,   -4.6,   -5.2,   -5.2,   -5.3,   -5.2,   -5.2,   -5.2,   -5.1,   -5.2,   -5.1,   -5.1,   -5.1,   -5.2,   -5.0,   -5.0,   -5.1,   -5.1,   -4.9,   -4.7,   -4.5,   -4.3,   -4.2,   -4.1,   -4.0,   -4.0,   -4.0,   -3.7,   -3.6,   -4.0,   -4.0,   -3.3,   -3.5,  999.0,  999.0,  999.0,  999.0,   -4.6,   -4.6,   -3.5,   -3.2,   -1.8,   -1.4,   -0.7,   -0.0,   -1.3,   -1.3,   -1.2,   -1.2,   -1.0,   -1.1,   -1.1,   -1.0,   -1.3,   -1.4,  999.0,  999.0,   -0.7
1994/02/27 03:00,   -6.0,   -6.2,   -6.4,   -5.6,   -6.1,   -6.1,   -6.0,   -5.9,   -5.9,   -5.9,   -6.0,   -5.9,   -5.9,   -5.9,   -5.9,   -6.0,   -6.1,   -6.0,   -6.0,   -5.8,   -5.8,   -5.8,   -5.9,   -5.9,   -5.8,   -5.7,   -5.6,   -5.6,   -5.4,   -5.2,   -5.1,   -5.0,   -5.2,   -5.2,   -5.1,   -5.1,   -5.2,   -4.8,   -5.1,   -4.9,   -5.6,   -2.3,   -1.9,   -1.8,  999.0,  999.0,  999.0,  999.0,  999.0,  999.0,  999.0,  999.0,   -1.8,  999.0,  999.0,  999.0,  999.0,  999.0
1994/02/27 03:10,  999.0,  999.0,  999.0,   -3.2,  999.0,    0.5,   -1.2,   -4.8,    0.0,   -2.6,   -2.7,   -5.6,   -2.9,   -2.9,   -2.9,   -2.9,   -5.4,   -2.7,   -2.6,   -2.6,   -5.0,   -5.1,   -5.4,   -5.4,   -5.4,   -5.4,   -5.3,   -5.5,   -5.2,   -5.8,   -5.5,   -5.2,   -5.5,   -5.6,   -5.3,   -5.4,   -5.6,   -5.4,   -5.7,   -5.1,  999.0,   -1.9,   -1.5,   -1.6,   -1.7,   -1.5,  999.0,   -2.1,   -1.3,  999.0,  999.0,   -0.5,  999.0,   -0.8,  999.0,  999.0,  999.0,  999.0
1994/02/27 03:20,   -0.2,   -0.3,   -0.9,    0.3,   -2.2,   -1.4,   -1.9,   -1.7,   -1.5,   -2.1,   -2.2,   -2.3,   -3.1,   -2.7,   -2.1,   -3.2,   -4.0,   -3.9,   -3.2,   -2.1,   -3.7,   -1.8,   -2.4,  999.0,  999.0,   -6.7,   -6.8,   -5.5,   -5.4,   -5.2,   -6.4,   -6.4,   -4.4,   -6.8,   -7.3,   -7.2,   -7.4,   -7.4,   -7.6,   -6.6,   -3.5,   -2.3,   -1.6,   -2.2,   -1.5,   -3.0,   -3.0,   -3.0,   -3.0,  999.0,   -0.1,    0.0,  999.0,  999.0,  999.0,   -0.1,  999.0,  999.0
1994/02/27 03:30,   -5.5,   -5.8,   -5.8,   -5.6,   -5.5,   -5.3,   -5.2,   -5.1,   -5.1,   -5.1,   -5.4,   -5.3,   -5.1,   -4.9,   -4.9,   -5.0,   -4.9,   -4.8,   -4.7,   -4.5,   -4.6,   -4.4,   -4.2,   -4.2,   -4.5,   -4.1,   -4.0,   -4.1,   -4.5,   -4.3,   -4.5,   -4.9,   -5.9,   -5.6,   -6.3,   -5.9,   -6.0,   -5.9,   -4.8,   -4.0,   -3.4,   -1.9,   -1.6,   -1.2,   -1.1,   -1.0,  999.0,  999.0,   -0.5,  999.0,  999.0,  999.0,  999.0,  999.0,  999.0,  999.0,  999.0,  999.0
1994/02/27 03:40,   -4.4,   -5.4,   -5.4,   -5.0,   -4.7,   -4.9,   -4.9,   -4.9,   -5.0,   -4.9,   -4.9,   -4.9,   -4.8,   -4.8,   -4.7,   -4.8,   -4.8,   -4.8,   -5.1,   -4.9,   -4.8,   -4.9,   -4.9,   -4.8,   -5.1,   -5.1,   -4.9,   -5.1,   -5.1,   -5.0,   -5.0,   -4.9,   -4.9,   -5.3,   -5.3,   -5.3,   -4.8,   -4.9,   -5.2,   -4.8,   -2.9,   -2.0,   -1.8,   -2.7,   -3.7,   -1.3,   -1.5,   -1.7,   -1.5,  999.0,   -1.2,   -1.4,  999.0,  999.0,  999.0,  999.0,  999.0,  999.0
1994/02/27 03:50,   -5.7,   -5.6,   -5.8,   -5.9,   -5.9,   -5.9,   -5.9,   -6.0,   -6.0,   -5.9,   -6.0,   -6.1,   -6.1,   -6.1,   -6.1,   -6.0,   -6.1,   -6.1,   -6.1,   -6.1,   -6.1,   -6.2,   -6.2,   -6.2,   -6.3,   -6.3,   -6.3,   -6.3,   -6.4,   -6.5,   -6.5,   -6.4,   -6.4,   -6.5,   -6.5,   -6.5,   -6.5,   -6.5,   -6.3,   -5.5,   -3.5,   -2.4,   -1.9,   -1.6,   -1.7,   -1.4,   -1.3,   -1.3,   -1.3,   -1.2,   -1.2,   -1.2,   -1.1,   -1.1,   -1.1,   -0.9,   -1.0,   -1.2
1994/02/27 04:00,   -6.1,   -6.2,   -6.2,   -6.3,   -6.3,   -6.3,   -6.3,   -6.4,   -6.3,   -6.4,   -6.3,   -6.3,   -6.3,   -6.3,   -6.4,   -6.3,   -6.3,   -6.2,   -6.2,   -6.3,   -6.4,   -6.5,   -6.6,   -6.5,   -6.5,   -6.5,   -6.3,   -6.3,   -6.3,   -6.3,   -6.3,   -6.3,   -6.4,   -6.4,   -6.3,   -6.4,   -6.4,   -6.3,   -6.2,   -5.0,   -3.4,   -2.6,   -2.0,   -1.6,   -1.2,   -1.2,   -1.3,   -1.2,   -1.1,   -1.1,   -1.0,   -1.0,   -1.0,   -1.0,   -1.0,   -1.1,   -1.0,   -1.0
1994/02/27 04:10,   -5.3,   -5.2,   -5.5,   -5.4,   -5.4,   -5.2,   -5.2,   -5.2,   -5.3,   -5.4,   -5.3,   -5.3,   -5.3,   -5.3,   -5.2,   -5.2,   -5.2,   -5.2,   -5.4,   -5.5,   -5.4,   -5.7,   -5.7,   -5.8,   -5.8,   -5.8,   -5.8,   -5.8,   -5.8,   -5.9,   -5.8,   -5.9,   -6.3,   -6.3,   -5.9,   -6.2,   -6.3,   -6.2,   -6.4,   -4.2,   -2.6,   -1.9,   -1.4,   -0.9,   -1.3,   -1.4,   -1.4,   -1.3,   -1.3,   -1.2,   -1.2,   -1.3,   -1.1,   -1.1,   -1.1,   -1.1,   -1.2,   -1.1
1994/02/27 04:20,  999.0,   -3.8,   -3.7,   -4.3,   -4.5,   -4.6,   -4.7,   -4.6,   -4.7,   -4.7,   -4.8,   -4.8,   -4.7,   -4.8,   -4.8,   -5.0,   -4.9,   -5.0,   -5.0,   -5.2,   -5.2,   -5.2,   -5.3,   -5.3,   -5.4,   -5.3,   -5.2,   -5.3,   -5.3,   -5.4,   -5.4,   -5.4,   -5.2,   -5.4,   -5.8,   -5.3,   -5.3,   -5.9,   -5.5,   -4.6,  999.0,   -1.4,   -1.4,   -0.8,   -1.3,   -1.3,   -1.4,   -1.2,   -1.3,   -1.1,   -1.2,   -1.1,   -1.2,   -1.1,   -1.2,   -1.1,   -1.1,   -1.1
1994/02/27 04:30,  999.0,   -4.6,   -4.5,   -4.5,   -4.6,   -4.7,   -4.7,   -4.7,   -4.8,   -4.8,   -4.8,   -4.8,   -4.8,   -4.9,   -4.8,   -4.7,   -4.7,   -4.8,   -4.7,   -4.9,   -4.8,   -4.9,   -5.0,   -4.9,   -4.9,   -4.8,   -4.9,   -4.7,   -4.7,   -4.8,   -5.1,   -4.7,   -4.6,   -5.0,   -4.8,   -4.6,   -4.9,   -4.9,   -5.1,   -5.0,  999.0,   -1.4,   -1.0,   -0.8,   -1.4,   -1.4,   -1.3,   -1.4,   -1.3,   -1.3,   -1.3,   -1.2,   -1.0,   -1.1,   -1.0,   -0.8,  999.0,   -0.9
1994/02/27 04:40,   -3.5,   -4.3,   -4.1,   -4.1,   -4.3,   -4.3,   -4.3,   -4.4,   -4.4,   -4.5,   -4.5,   -4.5,   -4.7,   -4.8,   -4.9,   -4.9,   -4.9,   -4.9,   -5.0,   -5.1,   -5.1,   -5.1,   -5.0,   -5.1,   -5.1,   -5.0,   -5.0,   -5.0,   -4.9,   -4.9,   -5.0,   -5.1,   -5.1,   -5.1,   -5.0,   -5.3,   -5.4,   -5.3,   -5.4,   -4.3,  999.0,   -1.6,   -1.2,   -1.3,   -1.4,   -1.4,   -1.3,   -1.3,   -1.4,   -1.2,   -0.9,   -1.0,   -1.0,   -1.1,   -0.9,   -1.0,  999.0,  999.0
1994/02/27 04:50,   -3.9,   -3.6,   -4.7,   -4.7,   -4.2,   -4.4,   -4.8,   -4.6,   -4.7,   -4.7,   -4.9,   -4.9,   -5.0,   -4.9,   -4.9,   -4.9,   -4.9,   -4.9,   -4.9,   -4.9,   -5.0,   -4.9,   -5.0,   -5.0,   -5.1,   -5.0,   -5.0,   -4.9,   -4.8,   -4.8,   -4.9,   -4.8,   -4.9,   -4.8,   -4.8,   -4.7,   -4.7,   -4.9,   -4.8,   -4.3,   -3.0,   -2.1,   -1.6,   -1.1,   -1.3,   -1.3,   -1.2,   -1.2,   -1.1,   -1.3,   -1.2,   -1.2,  999.0,   -1.3,  999.0,  999.0,  999.0,   -1.0
1994/02/27 05:00,   -3.6,   -3.2,   -3.7,   -3.7,   -3.7,   -3.7,   -3.7,   -3.6,   -3.7,   -3.7,   -3.7,   -3.7,   -3.6,   -3.7,   -3.7,   -3.7,   -3.8,   -3.8,   -4.0,   -4.0,   -4.0,   -4.0,   -4.1,   -4.1,   -4.3,   -4.2,   -3.9,   -4.1,   -4.1,   -4.1,   -4.2,   -4.4,   -4.3,   -4.1,   -4.2,   -4.6,   -4.3,   -4.4,   -4.5,   -4.7,   -3.8,   -2.4,   -1.8,   -1.3,   -1.1,   -1.2,   -1.3,   -1.2,   -1.1,   -1.1,   -1.1,   -0.9,   -1.1,   -1.2,  999.0,  999.0,  999.0,  999.0
1994/02/27 05:10,   -3.2,   -3.2,   -2.3,   -3.0,   -3.7,   -3.7,   -3.5,   -3.7,   -3.7,   -4.1,   -4.2,   -4.1,   -4.2,   -4.2,   -4.2,   -4.3,   -4.4,   -4.4,   -4.5,   -4.6,   -4.6,   -4.7,   -4.6,   -4.7,   -4.6,   -4.6,   -4.5,   -4.4,   -4.3,   -4.4,   -4.3,   -4.4,   -4.5,   -4.5,   -4.6,   -4.6,   -4.6,   -4.5,   -4.6,   -4.6,   -4.1,   -3.0,   -2.1,   -1.6,   -1.2,   -1.3,   -1.4,   -1.3,   -1.2,   -1.1,   -1.1,   -1.1,   -1.2,   -1.1,   -1.0,   -1.0,   -1.5,   -1.3
1994/02/27 05:20,  999.0,   -3.2,   -3.5,   -3.9,   -4.1,   -4.2,   -4.2,   -4.2,   -4.2,   -4.3,   -4.3,   -4.3,   -4.4,   -4.4,   -4.4,   -4.4,   -4.5,   -4.5,   -4.5,   -4.5,   -4.5,   -4.6,   -4.5,   -4.4,   -4.4,   -4.4,   -4.4,   -4.3,   -4.4,   -4.4,   -4.4,   -4.4,   -4.4,   -4.5,   -4.5,   -4.5,   -4.5,   -4.5,   -4.4,   -4.6,   -4.1,   -3.0,   -2.3,   -1.8,   -1.3,   -1.6,   -1.5,   -1.4,   -1.3,   -1.3,   -1.1,   -1.2,   -1.1,   -1.0,   -0.8,   -1.1,   -1.1,   -1.0
1994/02/27 05:30,   -3.7,   -3.7,   -3.0,   -2.9,   -2.2,   -2.2,   -3.0,   -3.2,   -3.9,   -2.0,   -2.0,   -2.7,   -2.6,   -4.4,   -2.2,   -2.4,   -4.7,   -4.6,   -2.4,   -4.6,   -4.7,   -2.3,   -4.6,   -4.6,   -4.9,   -5.2,   -4.5,   -4.7,   -5.2,   -5.3,   -5.4,   -5.3,   -4.9,   -4.3,   -4.4,   -4.8,   -4.4,   -4.7,   -4.3,   -5.1,   -3.9,   -2.8,   -1.8,   -1.1,   -1.2,   -1.4,   -1.4,   -1.3,   -1.4,   -1.3,   -1.3,   -1.3,   -1.6,   -1.1,   -0.4,   -1.2,  999.0,  999.0
1994/02/27 05:40,  999.0,   -1.5,   -1.3,   -1.9,   -0.7,    0.2,  999.0,    0.0,   -0.1,    0.1,    0.1,   -0.2,   -0.0,    0.2,    0.1,    0.2,  999.0,  999.0,    0.1,    0.1,  999.0,    0.0,  999.0,  999.0,   -0.0,  999.0,  999.0,   -0.0,  999.0,  999.0,  999.0,  999.0,  999.0,  999.0,  999.0,  999.0,  999.0,  999.0,  999.0,  999.0,  999.0,  999.0,  999.0,  999.0,  999.0,  999.0,  999.0,  999.0,  999.0,    0.1,  999.0,  999.0,  999.0,  999.0,  999.0,  999.0,  999.0,  999.0
1994/02/27 05:50,  999.0,   -1.4,   -2.0,   -1.4,   -0.6,    0.0,   -1.2,   -0.6,   -0.1,    0.1,    0.1,   -0.0,   -0.1,    0.1,    0.1,    0.1,   -0.0,    0.1,    0.1,    0.1,  999.0,   -0.0,  999.0,  999.0,  999.0,  999.0,  999.0,  999.0,  999.0,  999.0,  999.0,  999.0,  999.0,  999.0,  999.0,  999.0,  999.0,  999.0,  999.0,  999.0,  999.0,  999.0,  999.0,  999.0,  999.0,  999.0,  999.0,  999.0,  999.0,  999.0,  999.0,   -0.2,  999.0,  999.0,  999.0,  999.0,  999.0,  999.0
1994/02/27 06:00,  999.0,  999.0,   -0.3,   -0.2,    0.1,    0.2,    0.1,    0.5,    0.0,    0.1,   -0.0,   -0.1,    0.0,    0.0,    0.1,    0.1,  999.0,   -0.1,    0.1,    0.1,  999.0,  999.0,  999.0,  999.0,  999.0,  999.0,  999.0,  999.0,  999.0,  999.0,  999.0,  999.0,  999.0,  999.0,  999.0,  999.0,  999.0,  999.0,    0.1,  999.0,    0.0,  999.0,  999.0,  999.0,  999.0,  999.0,  999.0,  999.0,  999.0,  999.0,  999.0,  999.0,  999.0,  999.0,  999.0,  999.0,  999.0,  999.0
1994/02/27 06:10,   -1.0,  999.0,  999.0,  999.0,   -0.1,    0.1,   -0.3,    0.1,   -0.8,    0.1,    0.1,   -0.0,    0.1,    0.1,    0.1,    0.0,  999.0,  999.0,    0.1,    0.1,  999.0,   -0.0,  999.0,  999.0,  999.0,  999.0,  999.0,  999.0,  999.0,  999.0,  999.0,  999.0,  999.0,  999.0,  999.0,  999.0,  999.0,  999.0,  999.0,  999.0,  999.0,  999.0,  999.0,  999.0,  999.0,  999.0,  999.0,    0.0,  999.0,  999.0,  999.0,  999.0,  999.0,  999.0,  999.0,  999.0,  999.0,  999.0
1994/02/27 06:20,    0.8,  999.0,  999.0,  999.0,  999.0,  999.0,    0.6,    0.0,    0.1,  999.0,   -0.0,  999.0,    0.1,    0.1,    0.1,    0.1,    0.2,  999.0,    0.1,    0.1,  999.0,  999.0,  999.0,  999.0,  999.0,  999.0,  999.0,    0.9,  999.0,  999.0,  999.0,  999.0,  999.0,  999.0,  999.0,  999.0,  999.0,  999.0,  999.0,  999.0,  999.0,  999.0,  999.0,  999.0,  999.0,  999.0,  999.0,  999.0,  999.0,  999.0,  999.0,  999.0,  999.0,  999.0,  999.0,  999.0,  999.0,  999.0
1994/02/27 06:30,   -1.0,    0.3,  999.0,  999.0,  999.0,    0.2,   -0.3,    0.0,    0.1,    0.1,    0.0,   -0.1,    0.4,    0.1,    0.2,    0.0,  999.0,  999.0,    0.1,    0.1,  999.0,  999.0,    0.0,  999.0,   -0.5,  999.0,  999.0,  999.0,  999.0,  999.0,  999.0,  999.0,    0.5,  999.0,  999.0,  999.0,  999.0,  999.0,  999.0,  999.0,  999.0,  999.0,  999.0,  999.0,  999.0,  999.0,  999.0,  999.0,  999.0,  999.0,  999.0,  999.0,  999.0,  999.0,  999.0,  999.0,  999.0,  999.0
1994/02/27 06:40,  999.0,  999.0,  999.0,  999.0,  999.0,    0.2,    0.2,  999.0,    0.0,    0.1,    0.1,    0.0,    0.2,  999.0,    0.1,    0.1,  999.0,    0.0,    0.0,    0.0,  999.0,    0.1,  999.0,  999.0,    0.1,  999.0,  999.0,  999.0,  999.0,  999.0,  999.0,    0.4,  999.0,  999.0,  999.0,  999.0,  999.0,  999.0,  999.0,  999.0,  999.0,  999.0,  999.0,  999.0,  999.0,  999.0,  999.0,  999.0,  999.0,  999.0,  999.0,  999.0,  999.0,  999.0,  999.0,  999.0,  999.0,  999.0
1994/02/27 06:50,    0.2,  999.0,  999.0,  999.0,   -0.2,   -0.2,   -0.2,    0.1,   -0.1,    0.0,    0.2,  999.0,    0.1,    0.0,    0.2,    0.1,  999.0,    0.0,    0.1,    0.1,  999.0,    0.0,  999.0,  999.0,    0.5,  999.0,  999.0,  999.0,  999.0,  999.0,  999.0,  999.0,  999.0,  999.0,  999.0,  999.0,  999.0,  999.0,  999.0,  999.0,  999.0,  999.0,  999.0,    0.9,  999.0,  999.0,  999.0,  999.0,  999.0,  999.0,    1.0,  999.0,    1.2,  999.0,  999.0,  999.0,  999.0,  999.0
1994/02/27 07:00,    0.5,  999.0,   -0.2,  999.0,    0.7,   -1.1,   -1.0,   -0.3,   -0.4,   -0.4,    0.0,   -0.2,   -0.0,   -0.0,    0.2,    0.1,  999.0,    0.0,    0.1,    0.1,    0.2,  999.0,    1.8,    0.1,   -0.2,  999.0,  999.0,    0.0,  999.0,  999.0,  999.0,  999.0,  999.0,  999.0,  999.0,    0.1,  999.0,  999.0,  999.0,  999.0,  999.0,  999.0,  999.0,  999.0,  999.0,  999.0,  999.0,  999.0,  999.0,  999.0,  999.0,  999.0,  999.0,  999.0,  999.0,  999.0,  999.0,  999.0
1994/02/27 07:10,   -0.8,  999.0,   -0.7,   -0.2,    0.0,   -0.2,    0.1,    0.0,   -0.5,   -0.6,    0.1,   -0.1,    0.1,    0.1,    0.1,    0.0,    0.2,  999.0,    0.1,    0.1,  999.0,  999.0,  999.0,  999.0,  999.0,  999.0,  999.0,  999.0,  999.0,  999.0,  999.0,  999.0,  999.0,   -2.0,  999.0,  999.0,  999.0,  999.0,  999.0,  999.0,  999.0,  999.0,  999.0,  999.0,  999.0,  999.0,  999.0,  999.0,  999.0,  999.0,  999.0,  999.0,  999.0,  999.0,  999.0,  999.0,  999.0,  999.0
1994/02/27 07:20,   -0.6,   -0.2,  999.0,   -0.5,    0.0,    0.2,   -0.2,   -0.4,   -0.3,   -0.0,    0.1,   -0.0,    0.0,    0.1,    0.1,    0.0,   -0.1,    0.0,    0.2,    0.1,  999.0,   -0.0,  999.0,  999.0,  999.0,    0.2,  999.0,  999.0,  999.0,   -1.8,  999.0,  999.0,  999.0,  999.0,  999.0,  999.0,  999.0,  999.0,  999.0,  999.0,  999.0,  999.0,  999.0,  999.0,  999.0,  999.0,  999.0,  999.0,  999.0,  999.0,  999.0,  999.0,  999.0,  999.0,  999.0,  999.0,  999.0,  999.0
1994/02/27 07:30,  999.0,   -0.1,    0.1,    0.1,    0.1,    0.0,    0.2,   -0.0,   -0.1,    0.1,  999.0,  999.0,   -0.1,    0.1,    0.1,    0.0,  999.0,   -0.1,    0.1,    0.1,  999.0,    0.1,  999.0,  999.0,  999.0,  999.0,  999.0,    0.1,  999.0,  999.0,  999.0,  999.0,  999.0,  999.0,  999.0,  999.0,  999.0,  999.0,  999.0,  999.0,  999.0,  999.0,   -1.0,  999.0,  999.0,  999.0,  999.0,  999.0,  999.0,  999.0,  999.0,  999.0,  999.0,  999.0,  999.0,  999.0,  999.0,  999.0
1994/02/27 07:40,   -0.5,    0.0,   -0.4,   -0.3,    0.1,    0.2,   -0.1,    0.0,    0.3,    0.2,    0.1,   -0.1,    0.0,    0.0,    0.0,    0.1,  999.0,  999.0,    0.1,    0.1,  999.0,  999.0,  999.0,  999.0,  999.0,  999.0,  999.0,  999.0,   -0.1,  999.0,  999.0,  999.0,  999.0,  999.0,  999.0,  999.0,  999.0,   -0.7,   -0.7,  999.0,  999.0,   -0.9,  999.0,  999.0,   -1.0,  999.0,  999.0,  999.0,  999.0,  999.0,  999.0,  999.0,  999.0,  999.0,   -1.1,  999.0,  999.0,  999.0
1994/02/27 07:50,    0.1,   -0.1,    0.0,   -0.0,    0.1,    0.2,   -0.0,    0.1,    0.0,    0.2,    0.0,   -0.0,    0.2,    0.0,    0.0,   -0.0,    0.5,    0.0,    0.0,    0.1,  999.0,   -0.1,  999.0,   -0.1,  999.0,   -0.0,  999.0,  999.0,   -0.2,  999.0,  999.0,  999.0,  999.0,  999.0,   -0.3,  999.0,  999.0,  999.0,  999.0,  999.0,  999.0,  999.0,  999.0,  999.0,  999.0,  999.0,  999.0,  999.0,  999.0,  999.0,  999.0,  999.0,  999.0,  999.0,  999.0,  999.0,  999.0,  999.0
1994/02/27 08:00,    0.2,    0.1,   -0.2,    0.0,   -0.1,    0.1,   -0.0,    0.1,    0.0,    0.1,    0.0,   -0.3,   -0.0,    0.1,    0.2,    0.0,  999.0,   -0.5,    0.1,   -0.0,  999.0,    0.1,  999.0,  999.0,  999.0,  999.0,  999.0,  999.0,  999.0,   -0.1,  999.0,  999.0,  999.0,  999.0,  999.0,    0.0,  999.0,  999.0,  999.0,  999.0,  999.0,  999.0,  999.0,  999.0,  999.0,  999.0,  999.0,  999.0,  999.0,  999.0,  999.0,  999.0,  999.0,  999.0,  999.0,  999.0,  999.0,  999.0
1994/02/27 08:10,    0.0,   -0.1,   -0.2,   -0.1,   -0.1,    0.1,    0.0,    0.1,    0.1,    0.1,    0.2,   -0.1,    0.0,    0.1,   -0.1,   -0.0,   -0.3,    0.1,    0.1,    0.1,  999.0,   -0.0,  999.0,    0.4,  999.0,  999.0,  999.0,   -0.1,  999.0,  999.0,  999.0,  999.0,    0.1,  999.0,  999.0,  999.0,   -0.2,  999.0,  999.0,  999.0,  999.0,  999.0,  999.0,  999.0,  999.0,  999.0,  999.0,  999.0,  999.0,  999.0,  999.0,  999.0,  999.0,  999.0,  999.0,  999.0,  999.0,  999.0
1994/02/27 08:20,   -0.2,   -0.4,    0.0,   -0.1,    0.2,    0.2,    0.0,    0.1,    0.1,    0.1,    0.0,   -0.0,    0.1,   -0.1,    0.0,    0.0,  999.0,   -0.1,    0.1,    0.1,  999.0,    0.2,  999.0,  999.0,  999.0,  999.0,  999.0,  999.0,   -0.2,  999.0,  999.0,    0.1,  999.0,  999.0,  999.0,  999.0,  999.0,   -0.2,  999.0,  999.0,  999.0,  999.0,  999.0,  999.0,  999.0,  999.0,  999.0,  999.0,  999.0,  999.0,  999.0,  999.0,  999.0,  999.0,  999.0,  999.0,  999.0,  999.0
1994/02/27 08:30,    0.2,   -0.8,    0.1,   -0.0,   -0.1,    0.2,    0.5,   -0.0,    0.0,    0.1,    0.1,    0.0,    0.0,    0.1,    0.2,    0.1,  999.0,   -0.1,    0.0,    0.1,  999.0,  999.0,  999.0,  999.0,  999.0,  999.0,  999.0,  999.0,  999.0,  999.0,  999.0,  999.0,  999.0,  999.0,  999.0,  999.0,  999.0,   -0.0,  999.0,  999.0,  999.0,   -0.2,  999.0,  999.0,  999.0,  999.0,  999.0,  999.0,    0.2,  999.0,  999.0,  999.0,  999.0,   -0.1,   -0.1,   -0.1,   -0.1,  999.0
1994/02/27 08:40,    0.0,   -0.0,   -0.1,   -0.1,   -0.0,    0.1,    0.1,    0.2,    0.0,    0.0,   -0.1,   -0.1,    0.0,    0.1,    0.1,    0.1,    0.0,    0.0,   -0.0,    0.1,   -0.3,    0.1,  999.0,  999.0,  999.0,  999.0,  999.0,    0.0,  999.0,  999.0,  999.0,  999.0,  999.0,  999.0,  999.0,    0.1,   -0.2,  999.0,  999.0,   -0.2,  999.0,   -0.2,   -0.2,   -0.1,   -0.2,   -0.1,   -0.1,  999.0,   -0.1,  999.0,  999.0,  999.0,  999.0,  999.0,   -0.1,   -0.1,  999.0,  999.0
1994/02/27 08:50,    0.0,   -0.1,    0.0,   -0.0,    0.2,    0.2,    0.1,    0.1,    0.2,    0.1,   -0.0,   -0.0,    0.1,    0.1,    0.1,    0.1,   -0.0,  999.0,    0.1,    0.1,  999.0,    0.2,  999.0,  999.0,  999.0,  999.0,  999.0,  999.0,  999.0,  999.0,  999.0,  999.0,  999.0,  999.0,  999.0,  999.0,  999.0,  999.0,  999.0,  999.0,   -0.1,   -0.1,  999.0,  999.0,  999.0,   -0.1,    0.2,   -0.1,   -0.9,   -0.1,   -0.1,  999.0,  999.0,  999.0,  999.0,   -0.1,  999.0,   -0.1
1994/02/27 09:00,   -0.0,    0.2,   -0.0,    0.0,    0.0,    0.1,    0.2,    0.2,    0.2,    0.1,   -0.0,   -0.2,    0.0,    0.0,    0.1,    0.0,   -0.1,    0.0,   -0.0,    0.1,  999.0,  999.0,  999.0,  999.0,  999.0,  999.0,  999.0,  999.0,  999.0,  999.0,  999.0,  999.0,  999.0,  999.0,  999.0,  999.0,  999.0,  999.0,  999.0,  999.0,  999.0,  999.0,  999.0,  999.0,   -0.1,   -0.1,  999.0,   -0.1,  999.0,  999.0,  999.0,  999.0,  999.0,   -0.1,  999.0,  999.0,  999.0,  999.0
1994/02/27 09:10,    0.0,    0.1,   -0.3,   -0.1,   -0.1,   -0.0,  999.0,   -0.1,    0.1,    0.1,   -0.1,   -0.4,    0.0,    0.0,    0.1,    0.2,  999.0,    0.1,    0.1,    0.1,  999.0,    0.2,  999.0,  999.0,  999.0,   -0.1,  999.0,  999.0,  999.0,  999.0,  999.0,  999.0,  999.0,  999.0,  999.0,  999.0,  999.0,  999.0,  999.0,  999.0,  999.0,  999.0,  999.0,  999.0,  999.0,  999.0,  999.0,  999.0,  999.0,  999.0,  999.0,  999.0,  999.0,  999.0,  999.0,  999.0,  999.0,  999.0
1994/02/27 09:20,    0.0,    0.0,    0.0,    0.1,   -0.1,    0.1,   -0.0,    0.1,    0.1,    0.1,   -0.0,    0.0,    0.1,    0.1,    0.1,    0.1,  999.0,   -0.0,    0.1,    0.0,  999.0,    0.3,    0.5,  999.0,  999.0,  999.0,  999.0,  999.0,  999.0,  999.0,  999.0,  999.0,  999.0,  999.0,    0.9,  999.0,  999.0,  999.0,  999.0,  999.0,  999.0,  999.0,  999.0,  999.0,  999.0,  999.0,  999.0,  999.0,   -0.5,  999.0,  999.0,  999.0,  999.0,  999.0,  999.0,    0.1,  999.0,  999.0
1994/02/27 09:30,   -0.1,   -0.1,   -0.1,   -0.2,   -0.2,    0.1,    0.1,    0.0,   -0.0,    0.1,   -0.0,   -0.0,    0.0,    0.1,    0.1,    0.2,  999.0,    0.1,    0.1,    0.1,  999.0,    0.1,  999.0,    0.0,  999.0,  999.0,  999.0,  999.0,  999.0,  999.0,  999.0,  999.0,  999.0,  999.0,  999.0,  999.0,  999.0,  999.0,   -0.3,  999.0,  999.0,  999.0,  999.0,   -0.3,   -0.5,  999.0,   -0.4,  999.0,  999.0,  999.0,   -0.4,  999.0,  999.0,  999.0,  999.0,   -0.4,  999.0,   -0.5
1994/02/27 09:40,    0.0,    0.1,   -0.1,   -0.0,   -0.1,   -0.1,   -0.0,    0.0,    0.1,    0.1,   -0.1,  999.0,   -0.0,    0.1,    0.1,    0.1,  999.0,    0.1,    0.1,    0.1,  999.0,    0.2,  999.0,  999.0,  999.0,  999.0,  999.0,  999.0,  999.0,  999.0,  999.0,  999.0,   -0.2,  999.0,  999.0,  999.0,  999.0,   -0.3,  999.0,  999.0,  999.0,   -0.3,  999.0,  999.0,   -0.4,  999.0,   -0.4,   -0.4,  999.0,   -0.5,   -0.5,   -0.4,  999.0,   -0.5,   -0.5,   -0.5,   -0.5,   -0.5
1994/02/27 09:50,   -0.2,   -0.1,   -0.1,   -0.1,   -0.1,   -0.0,   -0.0,   -0.1,    0.0,    0.0,   -0.1,  999.0,    0.1,    0.1,    0.1,    0.1,  999.0,    0.3,    0.1,    0.1,  999.0,    0.0,  999.0,  999.0,  999.0,  999.0,  999.0,  999.0,  999.0,  999.0,  999.0,  999.0,  999.0,  999.0,    0.1,  999.0,  999.0,  999.0,  999.0,  999.0,  999.0,  999.0,  999.0,  999.0,  999.0,  999.0,  999.0,  999.0,  999.0,   -0.4,  999.0,  999.0,  999.0,  999.0,   -0.5,  999.0,  999.0,  999.0
1994/02/27 10:00,    0.0,   -0.1,    0.0,   -0.0,    0.0,    0.0,    0.1,    0.2,    0.2,   -0.0,   -0.1,  999.0,    0.1,    0.1,    0.1,    0.1,  999.0,    0.0,    0.1,    0.1,  999.0,    0.3,  999.0,  999.0,  999.0,  999.0,  999.0,  999.0,  999.0,  999.0,  999.0,  999.0,  999.0,  999.0,  999.0,  999.0,  999.0,   -0.4,  999.0,  999.0,  999.0,  999.0,  999.0,   -0.4,  999.0,   -0.4,   -0.4,   -0.4,   -0.5,  999.0,  999.0,   -0.4,  999.0,  999.0,   -0.4,   -0.4,  999.0,   -0.5
1994/02/27 10:10,    0.1,    0.2,    0.2,    0.2,   -0.1,   -0.1,   -0.1,   -0.0,    0.3,    0.1,   -0.1,  999.0,    0.0,    0.1,    0.1,    0.0,   -0.1,    0.2,    0.1,    0.1,  999.0,    0.2,   -0.2,  999.0,  999.0,  999.0,  999.0,    0.1,  999.0,  999.0,  999.0,   -0.1,  999.0,  999.0,  999.0,  999.0,  999.0,  999.0,  999.0,  999.0,  999.0,  999.0,  999.0,   -0.4,  999.0,  999.0,  999.0,  999.0,   -0.4,  999.0,  999.0,  999.0,  999.0,  999.0,  999.0,   -0.4,  999.0,  999.0
1994/02/27 10:20,   -0.1,    0.1,   -0.1,   -0.1,   -0.1,   -0.0,   -0.1,    0.1,    0.1,    0.1,   -0.1,   -0.0,  999.0,    0.0,    0.2,    0.0,   -0.0,  999.0,    0.1,    0.1,    0.2,    0.1,  999.0,  999.0,  999.0,  999.0,  999.0,  999.0,  999.0,   -0.1,   -0.1,   -0.8,   -0.2,   -0.2,  999.0,  999.0,  999.0,   -0.3,  999.0,  999.0,   -0.3,  999.0,   -0.4,  999.0,  999.0,  999.0,   -0.5,  999.0,  999.0,  999.0,  999.0,  999.0,   -0.4,   -0.4,   -0.4,  999.0,  999.0,  999.0
1994/02/27 10:30,    0.1,   -0.1,   -0.0,    0.0,   -0.0,   -0.0,   -0.1,    0.0,    0.0,    0.2,   -0.1,   -0.6,    0.2,    0.1,   -0.1,    0.2,  999.0,   -0.1,    0.1,    0.1,   -0.2,   -0.0,  999.0,  999.0,  999.0,  999.0,  999.0,  999.0,  999.0,  999.0,  999.0,  999.0,  999.0,  999.0,  999.0,  999.0,  999.0,  999.0,  999.0,  999.0,  999.0,  999.0,  999.0,  999.0,  999.0,   -0.4,  999.0,  999.0,  999.0,  999.0,  999.0,   -0.4,  999.0,   -0.4,  999.0,  999.0,  999.0,   -0.4
1994/02/27 10:40,   -1.6,   -2.2,   -2.3,   -2.6,   -2.4,   -2.4,   -4.1,   -2.8,   -2.8,   -3.0,   -3.5,   -3.0,   -3.2,   -2.0,   -2.9,   -2.9,   -4.2,   -1.8,   -1.8,   -2.1,   -4.3,   -3.0,   -2.7,   -2.3,  999.0,  999.0,   -0.1,   -4.0,  999.0,  999.0,  999.0,   -1.7,  999.0,  999.0,  999.0,  999.0,  999.0,  999.0,  999.0,  999.0,  999.0,  999.0,   -3.5,   -2.1,   -1.4,  999.0,  999.0,  999.0,  999.0,  999.0,   -5.1,   -5.7,   -1.0,  999.0,  999.0,   -6.2,  999.0,   -7.5
1994/02/27 10:50,   -8.8,   -9.3,   -9.6,   -9.6,   -9.3,   -9.3,   -9.4,   -9.2,   -8.9,   -8.6,   -8.3,   -8.3,   -7.6,   -7.3,   -6.9,   -7.7,   -7.5,   -7.1,   -7.0,   -5.8,   -8.3,   -8.2,   -8.6,   -6.3,   -7.6,   -7.4,   -6.1,   -5.9,   -6.7,   -7.0,   -6.1,   -6.0,   -7.6,   -6.9,  999.0,  999.0,  999.0,   -1.7,   -4.5,   -3.8,   -6.9,  999.0,  999.0,  999.0,  999.0,  999.0,  999.0,   -1.3,   -0.7,  999.0,  999.0,  999.0,  999.0,  999.0,  999.0,   -3.3,   -2.9,   -3.2
1994/02/27 11:00,   -8.5,   -8.5,   -8.6,   -8.6,   -8.5,   -8.5,   -8.2,   -8.3,   -8.2,   -8.7,   -8.4,   -8.3,   -8.1,   -8.0,   -7.9,   -7.8,   -7.6,   -7.3,   -7.2,   -7.2,   -8.1,   -8.2,   -8.3,   -8.4,   -7.7,   -7.9,   -8.2,   -8.2,   -8.2,   -8.0,   -8.0,   -8.1,   -8.2,   -8.4,   -8.6,   -8.6,   -8.0,   -8.4,   -8.0,   -7.5,   -7.2,   -6.7,   -6.0,   -5.6,   -6.3,   -5.3,   -5.8,   -5.8,   -6.3,   -5.6,   -5.4,   -5.4,   -5.2,   -5.1,   -5.1,   -4.9,   -4.9,   -4.8
1994/02/27 11:10,   -5.9,   -5.8,   -5.7,   -5.7,   -5.7,   -5.8,   -5.9,   -5.9,   -6.0,   -6.1,   -6.2,   -6.3,   -6.4,   -6.4,   -6.4,   -6.4,   -6.4,   -6.7,   -6.6,   -6.3,   -6.3,   -6.2,   -6.1,   -6.2,   -6.1,   -6.4,   -6.3,   -6.4,   -6.4,   -6.5,   -6.6,   -6.7,   -6.7,   -6.8,   -7.0,   -7.0,   -7.0,   -7.1,   -6.9,   -6.7,   -5.8,   -5.0,   -4.3,   -3.8,   -3.6,   -3.5,   -3.3,   -3.3,   -3.1,   -3.0,   -3.0,   -2.9,   -2.8,   -2.7,   -2.4,   -2.4,   -2.1,   -1.9
1994/02/27 11:20,   -5.9,   -5.9,   -6.0,   -6.1,   -6.1,   -6.0,   -6.4,   -6.0,   -6.4,   -6.3,   -6.2,   -6.3,   -6.6,   -6.4,   -6.2,   -6.4,   -6.2,   -6.2,   -6.2,   -6.2,   -6.3,   -6.4,   -6.3,   -6.2,   -6.1,   -6.0,   -6.1,   -6.1,   -6.2,   -6.5,   -6.6,   -6.7,   -6.8,   -6.9,   -6.9,   -7.1,   -7.3,   -7.1,   -7.2,   -6.6,   -4.8,   -3.9,   -2.8,   -2.5,   -1.9,   -2.1,   -1.7,   -1.6,   -1.3,   -1.2,   -1.3,   -1.6,   -1.3,   -1.2,   -1.1,   -0.7,   -1.0,   -1.0
1994/02/27 11:30,   -3.5,   -3.8,   -4.0,   -3.9,   -3.9,   -4.0,   -3.4,   -3.2,   -3.2,   -3.0,   -3.2,   -4.1,   -4.6,   -5.0,   -5.7,   -5.5,   -5.6,   -5.8,   -6.1,   -6.6,   -6.8,   -7.0,   -7.2,   -7.5,   -8.0,   -8.7,   -8.4,   -8.4,   -8.2,   -8.2,   -8.2,   -7.9,   -7.7,   -7.5,   -7.4,   -7.3,   -7.1,   -6.8,   -6.6,   -6.1,   -6.1,   -5.5,   -4.9,   -4.8,   -3.3,   -3.6,   -3.1,   -3.7,  999.0,   -0.9,  999.0,  999.0,  999.0,    0.1,  999.0,    0.6,   -2.9,   -2.3
1994/02/27 11:40,   -6.7,   -6.5,   -6.3,   -7.2,   -6.9,   -7.5,   -7.5,   -7.6,   -7.8,   -7.7,   -6.9,   -8.7,   -9.0,   -8.3,   -8.0,   -8.0,   -7.7,   -7.7,   -7.7,   -7.9,   -7.9,   -7.7,   -7.6,   -7.3,   -7.1,   -6.9,   -6.8,   -6.8,   -6.7,   -6.7,   -6.7,   -6.5,   -6.3,   -6.2,   -6.1,   -6.1,   -5.9,   -5.5,   -5.3,   -5.0,   -5.1,   -4.7,   -4.0,   -4.0,   -3.8,   -3.7,   -3.6,   -3.2,   -2.8,   -2.2,   -2.5,   -2.0,   -1.6,   -1.2,   -1.0,   -1.0,   -1.0,   -0.6
1994/02/27 11:50,   -8.2,   -8.3,   -8.0,   -8.1,   -8.0,   -7.9,   -7.7,   -7.8,   -7.8,   -8.3,   -8.4,   -8.0,   -8.1,   -8.0,   -8.0,   -7.8,   -7.8,   -7.8,   -7.7,   -7.6,   -7.4,   -6.9,   -7.0,   -6.9,   -6.7,   -6.4,   -6.2,   -5.9,   -6.0,   -5.7,   -5.4,   -5.7,   -5.6,   -5.3,   -5.6,   -5.6,   -5.5,   -5.5,   -5.7,   -5.6,   -5.5,   -5.6,   -5.4,   -4.9,   -4.6,   -4.3,   -4.0,   -3.8,   -3.6,   -3.7,   -3.5,   -3.1,   -2.7,   -2.7,   -2.3,   -2.1,   -1.8,   -1.5
1994/02/27 12:00,  999.0,   -2.6,   -2.5,   -3.1,   -3.2,   -3.9,   -5.3,   -3.4,   -3.1,   -3.0,   -3.2,   -4.5,   -3.1,   -4.2,   -4.2,   -4.2,   -4.9,   -5.0,   -5.1,   -4.7,   -4.4,   -4.6,   -4.6,   -4.7,   -4.5,   -4.7,   -4.5,   -4.2,   -4.0,   -3.9,   -3.7,   -3.6,   -3.5,   -3.5,   -3.4,   -3.3,   -3.6,   -3.9,   -3.4,   -4.3,   -4.0,   -3.7,   -3.7,   -3.2,   -3.1,   -2.5,   -2.4,   -2.1,   -2.0,   -1.8,   -1.8,   -1.6,   -1.5,   -1.3,   -1.3,   -1.2,   -1.0,   -1.0
1994/02/27 12:10,   -0.0,   -0.2,   -0.1,   -0.1,   -0.2,    0.1,   -0.0,   -0.0,   -0.0,    0.0,    0.0,  999.0,   -0.0,   -0.1,    0.1,   -0.0,   -1.1,    0.2,    0.1,    0.1,  999.0,   -3.3,   -1.4,  999.0,  999.0,   -3.2,   -3.6,  999.0,  999.0,  999.0,  999.0,  999.0,  999.0,  999.0,  999.0,  999.0,  999.0,  999.0,  999.0,  999.0,  999.0,  999.0,  999.0,  999.0,  999.0,  999.0,  999.0,  999.0,  999.0,  999.0,   -1.0,  999.0,  999.0,  999.0,  999.0,  999.0,  999.0,   -0.5
1994/02/27 12:20,   -0.0,   -0.2,   -0.2,   -0.3,   -0.2,    0.1,   -0.2,    0.1,   -0.2,    0.1,    0.1,   -0.1,    0.0,    0.0,    0.0,    0.0,  999.0,   -0.3,    0.0,    0.1,  999.0,    0.0,  999.0,  999.0,  999.0,  999.0,  999.0,  999.0,  999.0,  999.0,  999.0,  999.0,  999.0,  999.0,  999.0,  999.0,  999.0,  999.0,  999.0,  999.0,  999.0,  999.0,  999.0,  999.0,  999.0,  999.0,  999.0,  999.0,  999.0,  999.0,  999.0,  999.0,  999.0,  999.0,  999.0,  999.0,  999.0,  999.0
1994/02/27 12:30,    0.2,    0.2,    0.0,    0.2,    0.2,    0.2,    0.3,    0.2,    0.2,    0.2,    0.0,    0.0,    0.1,  999.0,    0.2,   -0.1,   -0.3,  999.0,  999.0,    0.1,  999.0,    0.0,  999.0,  999.0,  999.0,  999.0,  999.0,  999.0,  999.0,  999.0,  999.0,  999.0,  999.0,  999.0,    0.1,  999.0,  999.0,  999.0,  999.0,  999.0,  999.0,  999.0,  999.0,  999.0,  999.0,  999.0,  999.0,  999.0,  999.0,  999.0,  999.0,  999.0,  999.0,  999.0,  999.0,  999.0,  999.0,  999.0
1994/02/27 12:40,    0.3,    0.2,    0.0,    0.2,    0.1,    0.1,    0.1,    0.2,    0.1,    0.1,   -0.0,  999.0,    0.1,    0.0,    0.2,   -0.1,  999.0,    0.2,    0.2,    0.1,    0.1,    0.1,  999.0,  999.0,  999.0,  999.0,  999.0,  999.0,  999.0,  999.0,  999.0,  999.0,  999.0,  999.0,  999.0,  999.0,  999.0,  999.0,  999.0,  999.0,  999.0,  999.0,  999.0,  999.0,  999.0,  999.0,  999.0,  999.0,  999.0,  999.0,  999.0,  999.0,  999.0,  999.0,  999.0,  999.0,  999.0,  999.0
1994/02/27 12:50,   -0.0,    0.3,    0.1,   -0.1,   -0.0,   -0.1,   -0.2,   -0.1,   -0.0,    0.6,   -0.2,   -0.1,   -0.1,    0.0,    0.1,    0.0,  999.0,    0.1,    0.1,    0.1,   -0.1,    0.1,  999.0,  999.0,  999.0,  999.0,  999.0,  999.0,  999.0,  999.0,    0.1,  999.0,  999.0,  999.0,   -0.7,  999.0,    0.0,  999.0,  999.0,  999.0,   -0.2,  999.0,  999.0,  999.0,  999.0,  999.0,  999.0,  999.0,  999.0,  999.0,  999.0,  999.0,  999.0,  999.0,  999.0,  999.0,  999.0,  999.0
1994/02/27 13:00,    0.1,    0.1,   -0.1,   -0.2,   -0.3,   -0.2,   -0.0,   -0.1,   -0.1,   -0.1,    0.0,   -0.2,    0.0,    0.1,    0.1,    0.0,    0.2,    0.1,    0.1,    0.1,  999.0,  999.0,  999.0,  999.0,  999.0,  999.0,  999.0,  999.0,  999.0,  999.0,  999.0,    0.4,    0.4,    0.4,  999.0,    0.4,  999.0,  999.0,  999.0,  999.0,  999.0,  999.0,  999.0,  999.0,  999.0,  999.0,  999.0,  999.0,    0.5,    0.5,  999.0,    0.5,    0.5,  999.0,  999.0,  999.0,  999.0,  999.0
1994/02/27 13:10,   -4.0,   -4.0,   -4.0,   -3.9,   -3.8,   -3.7,   -4.9,   -5.2,   -4.8,   -5.4,   -4.9,   -5.6,   -4.0,   -3.8,   -3.6,   -3.3,   -4.4,   -2.8,   -2.7,   -4.2,   -3.4,   -3.4,   -5.0,   -5.2,   -5.3,   -5.4,   -5.3,   -5.5,   -5.5,   -5.4,   -5.3,   -5.6,   -5.2,   -5.0,   -3.5,   -5.3,   -5.0,   -5.0,   -5.0,   -4.9,   -5.0,   -4.7,   -3.5,   -2.5,   -2.2,   -2.2,   -2.0,   -1.9,   -2.1,   -1.8,   -2.2,   -1.8,   -1.9,   -1.8,   -1.9,   -1.9,   -1.9,   -1.9
1994/02/27 13:20,   -5.2,   -6.8,   -6.5,   -6.3,   -5.9,   -5.9,   -6.1,   -5.9,   -5.8,   -4.7,   -6.3,   -6.1,   -4.3,   -5.8,   -6.0,   -5.2,   -5.3,   -4.9,   -5.1,   -5.4,   -5.3,   -6.0,   -6.1,   -5.9,   -5.2,   -5.5,   -4.9,   -4.8,   -4.8,   -4.5,   -4.5,   -4.5,   -4.2,   -4.4,   -4.3,   -4.2,   -4.8,   -5.3,   -5.4,   -5.6,   -5.6,   -3.8,   -2.8,   -2.3,   -2.0,   -1.9,   -1.9,   -1.7,   -1.6,   -1.4,   -1.7,   -1.6,   -1.6,   -1.5,   -1.4,   -1.7,   -1.4,   -1.5
1994/02/27 13:30,   -7.2,   -7.1,   -7.0,   -6.9,   -6.8,   -6.6,   -6.5,   -6.4,   -6.2,   -6.1,   -6.2,   -5.8,   -5.6,   -5.7,   -5.4,   -5.5,   -6.3,   -6.4,   -6.4,   -5.7,   -5.6,   -5.6,   -6.6,   -6.7,   -6.8,   -6.7,   -6.7,   -6.5,   -6.5,   -6.6,   -6.4,   -6.7,   -6.6,   -7.7,   -7.5,   -7.6,   -7.7,   -7.0,   -7.0,   -6.3,   -4.5,   -3.9,   -3.2,   -3.6,   -4.0,   -3.8,   -3.7,   -3.5,   -3.1,   -2.9,   -2.3,   -2.0,   -1.8,   -1.6,   -1.9,   -1.6,   -1.4,   -1.4
1994/02/27 13:40,   -7.1,   -7.2,   -7.1,   -7.0,   -6.9,   -6.8,   -6.8,   -6.7,   -6.7,   -6.8,   -6.7,   -7.0,   -7.6,   -7.5,   -7.5,   -7.3,   -7.3,   -7.3,   -7.2,   -7.3,   -7.2,   -7.3,   -7.3,   -7.4,   -7.4,   -7.6,   -7.5,   -7.5,   -7.5,   -7.5,   -7.5,   -7.6,   -7.7,   -7.7,   -7.7,   -7.7,   -7.7,   -7.7,   -7.5,   -6.5,   -5.0,   -3.1,   -2.7,   -2.3,   -2.0,   -1.9,   -1.8,   -1.6,   -1.5,   -1.5,   -1.3,   -1.3,   -1.2,   -1.4,   -1.4,   -1.3,   -1.3,   -1.4
1994/02/27 13:50,   -1.4,   -2.0,   -1.6,   -2.6,   -2.7,   -2.8,   -3.2,   -4.5,   -4.1,   -4.0,   -3.9,   -3.7,   -3.8,   -5.2,   -5.6,   -5.8,   -4.7,   -5.4,   -5.4,   -5.3,   -5.3,   -5.2,   -5.0,   -4.8,   -4.7,   -4.6,   -4.4,   -4.4,   -4.2,   -4.1,   -4.3,   -4.4,   -4.5,   -4.6,   -4.5,   -4.3,   -4.4,   -4.4,   -4.5,   -4.5,   -4.4,   -3.2,  999.0,   -1.6,   -1.2,   -1.3,   -1.3,   -1.3,   -1.3,   -1.3,   -1.3,   -1.3,   -1.3,   -1.3,   -1.3,   -1.4,   -1.2,   -1.3
1994/02/27 14:00,    0.2,    0.1,   -0.9,   -0.7,   -0.1,    0.1,   -0.1,   -0.1,    0.0,    0.2,   -0.2,  999.0,    0.3,   -0.0,    0.2,    0.1,  999.0,    0.1,    0.1,    0.1,  999.0,    0.1,  999.0,  999.0,  999.0,  999.0,  999.0,  999.0,   -3.9,   -5.0,  999.0,   -4.3,   -4.1,   -4.4,   -4.6,   -4.4,   -4.2,   -4.3,   -4.7,   -4.2,   -4.6,   -3.5,   -2.0,   -1.6,   -1.3,   -1.5,   -1.5,   -1.4,   -1.5,   -1.4,   -1.3,   -1.3,   -1.0,   -1.3,   -1.1,   -1.3,   -1.3,   -1.5
1994/02/27 14:10,    0.1,    0.1,    0.1,    0.2,   -0.1,    0.0,   -0.1,    0.1,    0.1,    0.1,    0.1,    0.0,    0.0,    0.1,    0.1,    0.0,   -0.0,   -0.0,    0.1,    0.1,    0.0,  999.0,  999.0,  999.0,  999.0,  999.0,  999.0,  999.0,  999.0,  999.0,  999.0,  999.0,  999.0,   -3.4,  999.0,  999.0,  999.0,  999.0,  999.0,  999.0,  999.0,  999.0,   -1.9,   -1.6,   -1.1,   -1.1,   -1.2,   -1.5,   -1.4,   -1.2,   -1.2,   -1.3,   -1.3,   -1.3,  999.0,   -1.6,  999.0,   -1.1
1994/02/27 14:20,   -0.1,   -0.1,   -0.2,   -0.1,   -0.0,    0.0,   -0.2,   -0.2,   -0.0,   -0.0,  999.0,  999.0,    0.1,    0.1,    0.1,    0.2,   -0.1,    0.0,    0.2,    0.1,    0.2,   -0.0,  999.0,  999.0,  999.0,   -0.1,  999.0,  999.0,   -1.9,  999.0,  999.0,   -4.1,  999.0,  999.0,   -2.9,   -3.4,   -4.0,   -4.3,   -4.3,   -4.5,  999.0,   -3.5,   -2.3,   -1.7,   -1.4,   -1.3,   -1.3,   -1.4,   -1.3,   -1.3,   -1.0,   -1.1,   -1.6,   -1.1,   -1.2,   -1.2,   -1.1,   -1.2
1994/02/27 14:30,   -0.6,   -2.2,   -1.9,   -2.1,   -1.8,   -1.6,   -2.6,   -2.5,   -2.5,   -2.5,   -3.7,   -3.7,   -1.9,   -1.7,   -1.7,   -1.7,   -3.6,   -1.5,   -2.5,   -1.0,   -2.6,   -1.8,  999.0,    0.1,  999.0,  999.0,  999.0,  999.0,  999.0,   -0.3,  999.0,  999.0,  999.0,  999.0,  999.0,  999.0,  999.0,  999.0,  999.0,   -1.9,  999.0,  999.0,   -1.6,   -1.4,   -1.1,  999.0,   -0.9,   -1.2,  999.0,  999.0,  999.0,   -1.3,  999.0,   -1.0,  999.0,  999.0,  999.0,  999.0
1994/02/27 14:40,   -0.0,   -0.1,    0.0,    0.1,    0.0,    0.1,    0.1,    0.1,    0.2,   -2.1,   -2.3,   -4.5,   -1.4,   -2.1,   -1.3,   -1.9,   -3.6,   -1.4,   -3.3,   -1.5,   -1.6,   -1.8,   -2.5,   -2.6,   -2.5,   -1.1,   -2.8,  999.0,  999.0,  999.0,  999.0,  999.0,  999.0,  999.0,  999.0,   -2.7,  999.0,   -2.4,  999.0,  999.0,  999.0,  999.0,   -2.2,   -1.8,   -1.5,   -1.3,  999.0,  999.0,   -1.3,  999.0,  999.0,  999.0,  999.0,  999.0,  999.0,  999.0,    0.0,   -1.2
1994/02/27 14:50,    0.0,    0.1,   -0.0,    0.1,   -0.0,    0.0,   -0.0,    0.0,    0.1,    0.2,    0.1,  999.0,    0.2,    0.0,    0.1,   -0.0,    0.1,    0.1,    0.1,    0.1,  999.0,  999.0,  999.0,   -1.6,  999.0,    0.1,  999.0,  999.0,  999.0,  999.0,  999.0,   -1.1,   -4.1,  999.0,   -3.0,   -3.6,  999.0,   -2.4,  999.0,   -3.7,  999.0,  999.0,   -2.8,   -1.9,   -1.4,   -1.2,   -1.7,   -1.4,   -1.2,   -1.3,   -1.3,   -1.2,  999.0,   -1.6,  999.0,  999.0,   -1.6,   -1.4
1994/02/27 15:00,    0.0,    0.0,    0.1,    0.1,   -0.1,    0.0,  999.0,    0.1,    0.0,   -0.0,   -0.1,    0.1,    0.1,   -0.0,    0.1,    0.1,  999.0,    0.1,    0.0,    0.1,  999.0,  999.0,  999.0,  999.0,  999.0,  999.0,  999.0,  999.0,  999.0,  999.0,  999.0,  999.0,   -3.6,  999.0,   -3.3,  999.0,  999.0,  999.0,  999.0,  999.0,  999.0,  999.0,   -2.8,   -1.8,   -1.2,   -1.1,   -1.3,   -1.2,   -1.4,   -1.0,   -1.2,   -1.3,   -1.2,   -1.2,   -1.3,   -1.3,   -1.3,   -1.2
1994/02/27 15:10,    0.0,    0.1,    0.0,   -0.0,   -0.0,    0.2,    0.0,   -0.0,   -0.1,    0.1,   -0.0,   -0.0,   -0.0,    0.1,   -0.1,   -0.0,  999.0,    0.0,    0.1,    0.1,  999.0,  999.0,  999.0,  999.0,  999.0,  999.0,  999.0,  999.0,  999.0,  999.0,  999.0,  999.0,  999.0,  999.0,  999.0,  999.0,  999.0,  999.0,  999.0,  999.0,  999.0,  999.0,  999.0,  999.0,  999.0,  999.0,   -1.0,  999.0,  999.0,  999.0,   -0.9,  999.0,   -0.7,  999.0,  999.0,  999.0,  999.0,  999.0
1994/02/27 15:20,   -0.0,    0.1,   -0.1,    0.0,   -0.1,   -0.0,   -0.1,   -0.2,    0.1,    0.1,   -0.1,    0.1,    0.1,   -0.1,    0.2,    0.1,  999.0,  999.0,    0.0,    0.1,  999.0,    0.0,  999.0,  999.0,  999.0,  999.0,  999.0,    0.0,  999.0,  999.0,  999.0,  999.0,  999.0,  999.0,  999.0,  999.0,  999.0,  999.0,  999.0,  999.0,  999.0,  999.0,  999.0,  999.0,  999.0,  999.0,  999.0,  999.0,  999.0,  999.0,  999.0,  999.0,  999.0,  999.0,  999.0,  999.0,  999.0,    0.7
1994/02/27 15:30,    0.1,    0.1,   -0.1,    0.0,   -0.0,   -0.0,   -0.0,   -0.1,   -0.0,    0.2,   -0.1,    0.2,    0.1,    0.1,    0.1,    0.0,  999.0,    0.0,    0.1,    0.1,  999.0,  999.0,  999.0,  999.0,  999.0,  999.0,  999.0,  999.0,  999.0,  999.0,  999.0,  999.0,  999.0,   -0.2,  999.0,  999.0,  999.0,  999.0,  999.0,  999.0,  999.0,  999.0,  999.0,  999.0,  999.0,  999.0,  999.0,  999.0,  999.0,  999.0,  999.0,  999.0,  999.0,  999.0,    0.1,  999.0,  999.0,  999.0
1994/02/27 15:40,   -0.0,    0.0,   -0.1,    0.1,   -0.1,    0.1,   -0.1,    0.1,    0.1,    0.2,   -0.1,   -0.1,    0.0,    0.3,   -0.2,   -0.0,  999.0,    0.1,    0.1,    0.1,  999.0,  999.0,  999.0,  999.0,  999.0,    0.0,  999.0,  999.0,  999.0,  999.0,   -0.8,  999.0,  999.0,  999.0,  999.0,  999.0,  999.0,  999.0,  999.0,  999.0,  999.0,  999.0,  999.0,  999.0,   -1.0,  999.0,  999.0,  999.0,  999.0,  999.0,  999.0,  999.0,   -0.1,  999.0,  999.0,  999.0,  999.0,  999.0
1994/02/27 15:50,    0.1,    0.3,   -0.1,    0.2,    0.0,   -0.0,    0.1,    0.0,    0.0,    0.0,   -0.1,   -0.2,    0.0,   -0.1,   -0.0,    0.0,    0.1,    0.2,    0.1,    0.1,  999.0,  999.0,  999.0,  999.0,  999.0,  999.0,  999.0,  999.0,  999.0,  999.0,   -0.2,  999.0,  999.0,  999.0,  999.0,    0.1,  999.0,  999.0,  999.0,  999.0,  999.0,  999.0,  999.0,  999.0,  999.0,  999.0,  999.0,  999.0,  999.0,  999.0,  999.0,  999.0,  999.0,  999.0,  999.0,  999.0,  999.0,  999.0
1994/02/27 16:00,    0.1,    0.1,   -0.0,    0.2,    0.0,    0.0,   -0.1,   -0.3,   -0.1,   -0.0,   -0.2,   -0.3,   -0.0,    0.0,   -0.1,   -0.1,   -0.3,   -0.2,    0.0,    0.1,  999.0,  999.0,  999.0,  999.0,  999.0,  999.0,    0.1,  999.0,  999.0,  999.0,  999.0,    0.1,  999.0,  999.0,  999.0,  999.0,  999.0,  999.0,  999.0,  999.0,  999.0,  999.0,  999.0,  999.0,  999.0,  999.0,  999.0,  999.0,  999.0,  999.0,  999.0,  999.0,  999.0,  999.0,  999.0,  999.0,  999.0,  999.0
1994/02/27 16:10,    0.1,    0.1,    0.0,    0.0,   -0.0,    0.0,   -0.0,    0.4,    0.1,    0.1,   -0.0,   -0.1,    0.1,    0.0,    0.2,    0.2,  999.0,    0.0,    0.2,    0.1,  999.0,    0.2,  999.0,  999.0,  999.0,    0.1,  999.0,  999.0,  999.0,  999.0,  999.0,  999.0,  999.0,  999.0,  999.0,  999.0,    0.1,  999.0,  999.0,  999.0,  999.0,  999.0,  999.0,  999.0,  999.0,  999.0,  999.0,  999.0,  999.0,  999.0,  999.0,  999.0,  999.0,  999.0,  999.0,  999.0,  999.0,  999.0
1994/02/27 16:20,    0.0,   -0.0,   -0.1,   -0.1,   -0.1,    0.0,   -0.0,   -0.0,   -0.1,    0.1,   -0.1,  999.0,    0.1,    0.0,    0.0,   -0.0,   -0.5,   -0.1,    0.1,    0.1,  999.0,   -0.4,    0.0,  999.0,  999.0,    0.1,  999.0,  999.0,  999.0,  999.0,  999.0,  999.0,  999.0,  999.0,  999.0,  999.0,  999.0,  999.0,   -0.1,  999.0,  999.0,  999.0,  999.0,  999.0,  999.0,  999.0,  999.0,   -0.1,  999.0,  999.0,  999.0,  999.0,  999.0,  999.0,  999.0,   -0.5,  999.0,  999.0
1994/02/27 16:30,   -8.0,   -7.7,   -7.5,   -7.5,   -6.2,   -6.3,   -6.3,   -6.3,   -7.1,   -6.2,   -7.0,   -7.8,   -5.1,   -4.7,   -4.5,   -7.3,   -4.8,   -4.0,   -3.7,   -4.2,   -6.0,   -6.0,   -6.0,   -5.9,   -6.3,   -6.2,   -5.6,   -5.0,   -4.2,   -2.3,   -3.6,   -2.9,   -2.0,   -3.3,   -3.4,   -3.0,  999.0,  999.0,  999.0,  999.0,  999.0,  999.0,  999.0,  999.0,  999.0,  999.0,  999.0,  999.0,  999.0,  999.0,  999.0,  999.0,  999.0,    0.0,  999.0,   -1.1,  999.0,  999.0
1994/02/27 16:40,   -0.1,   -0.2,   -0.2,    0.1,   -0.1,   -0.0,   -0.2,   -0.0,    0.1,    0.2,   -0.0,    0.1,    0.2,   -0.0,    0.1,    0.1,   -0.1,    0.1,    0.2,    0.1,    0.2,  999.0,  999.0,  999.0,  999.0,  999.0,  999.0,   -0.1,  999.0,   -1.3,  999.0,  999.0,  999.0,  999.0,  999.0,   -1.5,  999.0,  999.0,  999.0,  999.0,  999.0,  999.0,  999.0,  999.0,  999.0,  999.0,  999.0,  999.0,  999.0,  999.0,  999.0,  999.0,  999.0,  999.0,  999.0,  999.0,  999.0,  999.0
1994/02/27 16:50,    0.0,    0.0,   -0.1,    0.0,   -0.0,    0.1,   -0.0,   -0.0,    0.1,    0.2,   -0.0,   -0.1,    0.0,  999.0,    0.1,    0.1,  999.0,    0.0,    0.0,    0.1,  999.0,  999.0,  999.0,    0.1,  999.0,  999.0,  999.0,    0.6,  999.0,  999.0,  999.0,  999.0,  999.0,  999.0,  999.0,  999.0,  999.0,  999.0,   -0.0,  999.0,  999.0,  999.0,  999.0,  999.0,  999.0,  999.0,  999.0,  999.0,  999.0,  999.0,  999.0,  999.0,  999.0,  999.0,  999.0,  999.0,  999.0,  999.0
1994/02/27 17:00,    0.0,    0.2,    0.0,    0.0,   -0.0,   -0.0,   -0.1,   -0.1,    0.1,    0.0,   -0.1,    0.1,    0.0,    0.1,    0.0,    0.2,   -0.1,   -0.0,    0.1,    0.2,  999.0,    0.1,  999.0,  999.0,  999.0,    0.4,  999.0,  999.0,  999.0,  999.0,  999.0,  999.0,  999.0,  999.0,  999.0,  999.0,  999.0,  999.0,  999.0,  999.0,  999.0,  999.0,  999.0,  999.0,  999.0,   -0.1,  999.0,  999.0,  999.0,  999.0,  999.0,  999.0,  999.0,  999.0,  999.0,  999.0,  999.0,  999.0
1994/02/27 17:10,   -0.1,    0.4,   -0.1,    0.1,    0.2,    0.0,   -0.0,    0.0,    0.1,    0.1,  999.0,  999.0,    0.1,    0.0,    0.2,    0.2,  999.0,    0.1,    0.2,    0.1,  999.0,    0.0,  999.0,  999.0,  999.0,  999.0,    0.1,  999.0,  999.0,  999.0,  999.0,  999.0,  999.0,  999.0,  999.0,  999.0,  999.0,    0.1,  999.0,  999.0,  999.0,  999.0,   -0.1,  999.0,  999.0,  999.0,  999.0,  999.0,  999.0,  999.0,  999.0,  999.0,  999.0,  999.0,  999.0,  999.0,  999.0,  999.0
1994/02/27 17:20,    0.1,    0.0,   -0.0,   -0.1,    0.0,    0.2,    0.1,    0.1,    0.1,    0.1,   -0.0,  999.0,   -0.0,    0.1,    0.1,    0.1,    0.1,    0.3,    0.1,    0.1,  999.0,    0.1,  999.0,  999.0,  999.0,  999.0,  999.0,  999.0,  999.0,  999.0,  999.0,  999.0,  999.0,   -0.1,  999.0,  999.0,  999.0,  999.0,  999.0,  999.0,  999.0,  999.0,  999.0,  999.0,  999.0,  999.0,  999.0,  999.0,  999.0,  999.0,  999.0,  999.0,  999.0,  999.0,  999.0,  999.0,  999.0,  999.0
1994/02/27 17:30,   -0.1,    0.0,   -0.0,    0.1,   -0.0,    0.0,    0.0,    0.1,    0.1,    0.0,   -0.1,  999.0,    0.0,    0.1,    0.1,    0.1,   -0.2,  999.0,    0.2,    0.1,  999.0,   -0.0,  999.0,  999.0,  999.0,  999.0,  999.0,  999.0,  999.0,  999.0,  999.0,  999.0,  999.0,  999.0,  999.0,  999.0,  999.0,  999.0,  999.0,  999.0,  999.0,  999.0,  999.0,  999.0,  999.0,  999.0,  999.0,  999.0,  999.0,  999.0,  999.0,  999.0,  999.0,  999.0,  999.0,  999.0,   -0.1,  999.0
1994/02/27 17:40,    0.2,   -0.1,   -0.1,    0.0,   -0.0,   -0.0,   -0.1,    0.1,    0.0,    0.2,   -0.2,  999.0,   -0.2,    0.1,    0.1,    0.0,    0.0,    0.1,    0.1,    0.1,    0.2,   -0.4,  999.0,  999.0,  999.0,  999.0,  999.0,  999.0,  999.0,  999.0,  999.0,  999.0,    0.1,  999.0,  999.0,  999.0,  999.0,  999.0,  999.0,  999.0,  999.0,  999.0,  999.0,  999.0,  999.0,  999.0,  999.0,  999.0,  999.0,  999.0,  999.0,  999.0,  999.0,  999.0,  999.0,   -0.2,  999.0,  999.0
1994/02/27 17:50,    0.0,    0.3,    0.0,    0.1,    0.1,    0.1,    0.1,    0.2,   -0.0,    0.1,   -0.1,   -0.0,    0.1,  999.0,    0.1,   -0.0,    0.1,   -0.0,    0.1,    0.1,  999.0,  999.0,  999.0,  999.0,  999.0,  999.0,  999.0,  999.0,  999.0,  999.0,  999.0,  999.0,  999.0,  999.0,  999.0,  999.0,  999.0,  999.0,  999.0,  999.0,   -0.0,  999.0,  999.0,  999.0,  999.0,  999.0,  999.0,  999.0,  999.0,  999.0,   -0.1,  999.0,  999.0,  999.0,  999.0,  999.0,  999.0,   -0.1
1994/02/27 18:00,    0.2,    0.0,   -0.1,    0.0,   -0.0,    0.0,    0.0,   -0.0,    0.2,    0.1,   -0.1,   -0.0,   -0.1,   -0.2,    0.1,    0.1,    0.0,   -0.0,    0.2,    0.1,  999.0,    0.1,   -0.2,  999.0,  999.0,    0.0,   -0.5,    0.1,   -0.7,  999.0,  999.0,  999.0,  999.0,  999.0,   -0.2,  999.0,  999.0,  999.0,   -0.4,  999.0,  999.0,  999.0,  999.0,  999.0,  999.0,   -0.4,   -0.3,  999.0,  999.0,   -0.4,  999.0,  999.0,  999.0,  999.0,   -0.7,   -0.2,  999.0,   -0.3
1994/02/27 18:10,    0.7,    0.3,    0.0,    0.2,   -0.1,    0.0,    0.0,   -0.1,    0.1,    0.1,   -0.0,  999.0,    0.0,    0.1,    0.1,    0.0,  999.0,    0.1,    0.1,    0.1,    0.0,  999.0,  999.0,  999.0,  999.0,  999.0,  999.0,  999.0,  999.0,   -0.1,  999.0,  999.0,  999.0,  999.0,  999.0,  999.0,  999.0,  999.0,  999.0,  999.0,  999.0,  999.0,  999.0,  999.0,  999.0,  999.0,  999.0,  999.0,  999.0,  999.0,   -0.4,  999.0,  999.0,  999.0,  999.0,  999.0,  999.0,  999.0
1994/02/27 18:20,    0.0,    0.5,    0.0,    0.1,   -0.1,    0.1,    0.1,    0.1,    0.1,    0.1,   -0.1,   -0.0,   -0.0,    0.0,    0.1,    0.1,    0.1,    0.1,    0.1,    0.0,  999.0,  999.0,  999.0,    0.1,  999.0,  999.0,  999.0,  999.0,  999.0,  999.0,  999.0,  999.0,  999.0,  999.0,  999.0,  999.0,  999.0,  999.0,  999.0,  999.0,  999.0,  999.0,  999.0,  999.0,  999.0,  999.0,  999.0,  999.0,   -0.2,  999.0,  999.0,  999.0,  999.0,  999.0,  999.0,  999.0,  999.0,  999.0
1994/02/27 18:30,    0.1,    0.3,    0.5,   -0.1,   -0.1,    0.1,    0.2,   -0.1,    0.1,    0.1,   -0.0,  999.0,    0.1,   -0.0,    0.1,    0.1,  999.0,   -0.1,   -0.0,    0.1,  999.0,  999.0,  999.0,  999.0,    1.1,   -0.0,  999.0,  999.0,  999.0,  999.0,  999.0,  999.0,  999.0,  999.0,  999.0,  999.0,  999.0,   -1.3,  999.0,  999.0,  999.0,  999.0,  999.0,  999.0,  999.0,  999.0,  999.0,  999.0,  999.0,  999.0,  999.0,  999.0,  999.0,  999.0,  999.0,  999.0,    0.1,  999.0
1994/02/27 18:40,    0.8,  999.0,   -0.4,    0.2,   -0.0,   -0.1,    0.1,  999.0,    0.2,  999.0,   -0.2,  999.0,   -0.3,    0.0,    0.1,    0.1,  999.0,    0.2,    0.0,    0.2,    0.1,    0.1,  999.0,  999.0,   -0.2,  999.0,  999.0,  999.0,  999.0,  999.0,  999.0,  999.0,  999.0,  999.0,  999.0,  999.0,  999.0,  999.0,  999.0,  999.0,  999.0,  999.0,  999.0,  999.0,  999.0,  999.0,  999.0,  999.0,  999.0,  999.0,  999.0,  999.0,  999.0,  999.0,  999.0,  999.0,  999.0,  999.0
1994/02/27 18:50,    0.5,  999.0,  999.0,    0.0,   -0.1,   -0.0,    0.1,   -0.0,   -0.0,    0.2,    0.0,   -0.1,    0.1,    0.1,    0.1,    0.0,  999.0,  999.0,    0.1,    0.1,    0.1,    0.1,  999.0,    0.0,  999.0,  999.0,  999.0,  999.0,   -0.0,  999.0,  999.0,  999.0,  999.0,  999.0,  999.0,  999.0,  999.0,  999.0,  999.0,  999.0,  999.0,   -0.1,  999.0,  999.0,  999.0,  999.0,  999.0,  999.0,  999.0,  999.0,  999.0,  999.0,    0.2,  999.0,  999.0,    0.1,  999.0,  999.0
1994/02/27 19:00,    0.9,    0.8,    0.3,    0.9,    0.7,    0.9,    0.7,   -0.1,   -0.0,   -0.2,   -0.0,   -0.2,    0.1,    0.1,    0.2,    0.1,  999.0,    0.3,    0.1,    0.1,  999.0,  999.0,  999.0,  999.0,  999.0,  999.0,  999.0,  999.0,  999.0,  999.0,  999.0,    0.1,  999.0,  999.0,  999.0,  999.0,  999.0,  999.0,  999.0,  999.0,  999.0,  999.0,  999.0,  999.0,  999.0,  999.0,  999.0,  999.0,   -0.0,  999.0,  999.0,  999.0,  999.0,  999.0,  999.0,  999.0,    0.2,  999.0
1994/02/27 19:10,    0.1,   -0.3,    0.6,    0.7,    0.5,    0.4,   -0.0,   -0.2,   -0.1,   -0.1,    0.3,  999.0,    0.0,   -0.1,    0.2,    0.1,   -0.0,  999.0,    0.1,    0.1,  999.0,  999.0,  999.0,  999.0,  999.0,    0.5,  999.0,  999.0,  999.0,  999.0,  999.0,  999.0,  999.0,  999.0,  999.0,  999.0,  999.0,   -0.1,  999.0,    1.0,  999.0,  999.0,  999.0,  999.0,  999.0,  999.0,  999.0,  999.0,  999.0,  999.0,   -0.2,  999.0,  999.0,  999.0,  999.0,  999.0,  999.0,  999.0
1994/02/27 19:20,    0.5,   -1.0,   -1.4,   -1.0,   -3.0,   -2.1,   -1.6,   -1.6,   -2.1,   -2.9,   -3.1,   -3.6,   -2.5,   -3.4,   -3.5,   -3.5,   -3.5,   -3.4,   -3.6,   -1.7,   -3.6,   -3.6,   -4.1,   -3.4,  999.0,   -3.5,  999.0,   -4.3,   -3.9,  999.0,   -3.6,   -3.7,   -3.9,   -3.6,   -3.6,   -3.5,   -3.7,   -1.6,   -3.1,   -3.4,   -3.7,  999.0,   -2.8,   -2.0,   -1.6,   -1.7,  999.0,   -1.3,  999.0,   -1.4,  999.0,   -1.7,   -1.3,   -1.3,  999.0,  999.0,   -1.2,   -1.2
1994/02/27 19:30,   -3.8,   -1.5,    0.8,   -4.3,   -2.9,   -3.9,   -3.6,   -3.4,   -3.7,   -3.6,   -4.3,   -4.3,   -4.4,   -4.4,   -4.4,   -4.4,   -4.3,   -4.2,   -4.8,   -4.6,   -4.2,   -4.1,   -4.5,   -4.4,   -4.7,   -5.0,   -4.2,   -5.1,   -5.1,   -5.0,   -4.1,   -4.1,   -4.0,   -4.2,   -4.1,   -4.1,   -4.1,   -4.0,   -3.9,   -3.8,   -3.9,   -3.9,   -2.9,   -2.1,   -1.7,   -1.6,   -1.6,   -1.6,   -1.7,   -1.3,   -1.3,   -1.2,   -1.2,   -1.2,   -1.1,   -1.1,   -1.1,   -1.0
1994/02/27 19:40,   -0.3,  999.0,  999.0,   -0.7,   -4.1,   -4.4,   -4.4,   -4.2,   -4.3,   -4.4,   -4.5,   -4.5,   -4.6,   -4.6,   -4.5,   -4.6,   -4.6,   -4.4,   -4.6,   -4.7,   -4.6,   -4.8,   -5.0,   -5.0,   -4.9,   -4.8,   -4.7,   -4.5,   -4.7,   -4.8,   -4.4,   -4.7,   -4.6,   -4.9,   -4.6,   -4.7,   -4.7,   -4.9,   -4.8,   -4.6,   -5.0,   -4.8,   -3.6,   -2.3,   -1.7,   -1.2,   -1.2,   -1.2,   -1.2,   -1.1,   -1.1,   -1.1,   -1.3,   -1.0,   -1.2,  999.0,   -1.2,   -1.0
1994/02/27 19:50,    1.4,    0.6,    0.2,   -0.1,    0.4,    0.5,   -0.5,   -0.6,   -1.8,   -2.8,   -1.7,   -5.0,   -4.8,   -5.0,   -5.0,   -4.9,   -5.0,   -5.0,   -5.1,   -5.2,   -5.1,   -5.4,   -5.4,   -5.5,   -5.3,   -5.4,   -5.4,   -5.5,   -5.4,   -5.4,   -5.3,   -5.2,   -5.2,   -5.2,   -5.4,   -5.3,   -5.3,   -5.3,   -5.3,   -5.3,   -5.3,   -4.9,   -3.6,   -2.3,   -2.1,   -1.9,   -1.7,   -1.5,   -1.4,   -1.5,   -1.4,   -1.2,   -1.2,   -1.1,   -1.0,   -1.1,   -1.1,   -1.2
1994/02/27 20:00,   -6.3,   -6.3,   -6.4,   -6.4,   -6.5,   -6.6,   -6.6,   -6.7,   -6.7,   -6.8,   -6.8,   -6.9,   -6.9,   -6.9,   -7.0,   -7.1,   -7.1,   -7.2,   -7.2,   -7.2,   -7.2,   -7.2,   -7.2,   -7.2,   -7.4,   -7.2,   -7.2,   -7.3,   -7.3,   -7.3,   -7.3,   -7.3,   -7.3,   -7.4,   -7.4,   -7.4,   -7.5,   -7.6,   -7.6,   -7.4,   -6.4,   -5.4,   -4.1,   -3.2,   -2.6,   -2.4,   -2.8,   -3.0,   -3.1,   -2.9,   -1.7,   -1.6,   -1.6,   -1.5,   -1.6,   -1.7,   -1.6,   -1.5
1994/02/27 20:10,   -6.3,   -6.3,   -6.3,   -6.3,   -6.5,   -6.5,   -6.3,   -6.3,   -6.3,   -6.3,   -6.4,   -6.4,   -6.4,   -6.6,   -6.6,   -6.7,   -6.7,   -6.8,   -6.9,   -6.9,   -7.0,   -7.0,   -7.0,   -7.0,   -7.1,   -7.1,   -7.2,   -7.2,   -7.2,   -7.3,   -7.4,   -7.4,   -7.4,   -7.4,   -7.4,   -7.4,   -7.4,   -7.5,   -7.5,   -7.0,   -5.9,   -4.5,   -3.4,   -2.6,   -2.2,   -1.8,   -1.6,   -1.6,   -1.6,   -1.6,   -1.6,   -1.5,   -1.5,   -1.4,   -1.4,   -1.4,   -1.4,   -1.5
1994/02/27 20:20,   -5.4,   -5.5,   -5.5,   -5.6,   -5.6,   -5.5,   -5.5,   -5.4,   -5.4,   -5.6,   -5.6,   -5.6,   -5.6,   -5.6,   -5.6,   -5.6,   -5.7,   -5.7,   -5.8,   -5.9,   -6.0,   -6.1,   -6.1,   -6.0,   -5.9,   -6.0,   -6.0,   -6.1,   -6.2,   -6.0,   -6.4,   -6.2,   -6.1,   -6.5,   -6.5,   -6.3,   -6.4,   -6.4,   -6.6,   -6.4,   -5.6,   -4.1,   -3.1,   -2.4,   -1.9,   -1.8,   -1.6,   -1.5,   -1.6,   -1.6,   -1.6,   -1.6,   -1.6,   -1.6,   -1.6,   -1.5,   -1.4,   -1.4
1994/02/27 20:30,   -4.1,   -5.2,   -4.4,   -3.7,   -4.5,   -5.2,   -5.1,   -5.3,   -5.2,   -5.3,   -5.3,   -5.4,   -5.4,   -5.5,   -5.5,   -5.5,   -5.4,   -5.4,   -5.4,   -5.3,   -5.3,   -5.3,   -5.4,   -5.2,   -5.3,   -5.3,   -5.3,   -5.3,   -5.3,   -5.5,   -5.4,   -5.3,   -5.1,   -5.3,   -5.3,   -5.2,   -5.4,   -5.2,   -5.2,   -5.5,   -5.0,   -3.8,   -2.8,   -2.2,   -1.8,   -1.5,   -1.3,   -1.3,   -1.4,   -1.3,   -1.4,   -1.6,   -1.5,   -1.4,   -1.4,   -1.3,   -1.4,   -1.4
1994/02/27 20:40,    0.6,  999.0,  999.0,  999.0,   -0.5,   -1.7,   -1.8,   -2.1,   -1.4,   -4.3,   -4.4,   -4.2,   -2.0,   -2.1,   -3.3,   -2.1,   -4.3,   -3.7,   -4.3,   -2.2,   -4.6,   -4.6,   -4.0,   -4.2,   -4.5,   -4.6,   -4.5,   -4.6,   -4.8,   -4.9,   -4.8,   -4.9,   -4.6,   -4.9,   -4.8,   -4.9,   -4.8,   -4.9,   -4.8,   -5.0,   -4.7,   -3.3,   -2.3,   -1.7,   -1.3,   -1.4,   -1.4,   -1.3,   -1.3,   -1.2,   -1.4,   -1.6,   -0.9,   -1.1,   -0.7,  999.0,   -1.1,   -0.9
1994/02/27 20:50,    0.2,    0.3,    0.0,    0.1,   -0.0,   -0.4,    0.2,   -0.3,    0.3,    0.3,  999.0,    0.4,    0.0,   -0.1,    0.0,    0.0,   -0.0,    0.3,    0.1,    0.1,  999.0,    0.1,  999.0,  999.0,  999.0,  999.0,  999.0,  999.0,  999.0,  999.0,  999.0,  999.0,  999.0,   -3.7,  999.0,  999.0,  999.0,   -3.6,  999.0,  999.0,  999.0,   -2.7,   -1.8,  999.0,  999.0,  999.0,  999.0,  999.0,  999.0,  999.0,  999.0,  999.0,  999.0,   -0.9,  999.0,  999.0,   -0.1,  999.0
1994/02/27 21:00,   -1.0,   -1.3,   -1.6,   -1.3,   -1.1,   -1.9,   -3.9,   -2.2,   -2.1,   -2.1,   -1.5,   -1.0,   -1.0,   -1.0,   -0.5,   -0.7,  999.0,   -2.0,    0.1,   -0.5,   -3.2,  999.0,  999.0,  999.0,    0.1,  999.0,  999.0,  999.0,  999.0,  999.0,    0.0,  999.0,  999.0,   -0.2,  999.0,  999.0,  999.0,  999.0,  999.0,  999.0,  999.0,  999.0,   -1.4,  999.0,  999.0,  999.0,  999.0,   -0.1,    0.1,  999.0,   -0.1,  999.0,  999.0,  999.0,  999.0,  999.0,  999.0,  999.0
1994/02/27 21:10,   -5.4,   -5.2,   -5.2,   -5.3,   -5.3,   -5.2,   -5.3,   -5.4,   -5.3,   -5.2,   -5.2,   -5.2,   -5.3,   -5.2,   -5.2,   -5.2,   -5.0,   -5.0,   -5.6,   -5.5,   -5.3,   -5.3,   -5.3,   -5.5,   -5.4,   -5.2,   -5.4,   -5.0,   -4.8,   -4.4,   -4.4,   -4.3,   -3.6,   -4.5,   -5.0,   -4.8,   -4.5,   -4.7,   -4.7,   -4.6,   -4.7,   -4.3,   -2.9,   -2.2,   -2.2,   -2.2,   -1.9,   -1.7,   -1.2,   -1.5,   -1.1,  999.0,   -1.9,  999.0,  999.0,  999.0,   -1.3,  999.0
1994/02/27 21:20,   -4.6,   -4.6,   -4.7,   -4.8,   -5.2,   -5.1,   -4.9,   -4.9,   -4.8,   -4.8,   -4.8,   -4.9,   -5.0,   -5.0,   -5.2,   -5.4,   -5.4,   -5.3,   -5.4,   -5.3,   -5.3,   -5.3,   -5.4,   -5.5,   -5.4,   -5.2,   -4.9,   -4.9,   -4.7,   -4.6,   -4.6,   -4.6,   -4.6,   -4.8,   -5.0,   -5.0,   -4.9,   -4.8,   -4.6,   -4.5,   -4.6,   -4.4,   -4.0,   -2.8,   -2.2,   -1.9,   -1.6,   -1.6,   -1.2,   -1.7,   -1.1,  999.0,   -1.2,  999.0,  999.0,  999.0,  999.0,  999.0
1994/02/27 21:30,   -5.0,   -4.9,   -5.0,   -4.9,   -4.9,   -4.9,   -4.8,   -4.9,   -4.8,   -4.8,   -4.9,   -5.0,   -4.7,   -5.1,   -5.3,   -5.2,   -5.1,   -5.2,   -5.2,   -5.0,   -4.7,   -4.6,   -4.5,   -4.4,   -4.4,   -4.4,   -4.3,   -4.3,   -4.2,   -4.3,   -4.3,   -4.1,   -4.1,   -4.1,   -4.0,   -3.8,   -4.0,   -4.1,   -4.3,   -4.2,   -4.5,   -4.5,   -3.3,   -2.5,   -2.0,   -1.7,   -1.2,   -1.9,  999.0,  999.0,   -1.3,  999.0,  999.0,  999.0,  999.0,   -1.1,  999.0,  999.0
1994/02/27 21:40,   -5.7,   -5.7,   -5.6,   -5.7,   -5.5,   -5.7,   -5.6,   -5.7,   -5.6,   -5.7,   -5.6,   -5.4,   -5.3,   -5.2,   -5.2,   -5.2,   -5.2,   -5.2,   -5.1,   -4.9,   -4.8,   -4.7,   -4.9,   -4.8,   -4.9,   -4.7,   -4.7,   -4.4,   -4.6,   -4.5,   -4.0,   -3.6,   -3.6,   -3.5,   -3.6,   -3.7,   -3.6,  999.0,  999.0,  999.0,  999.0,  999.0,   -3.3,   -2.4,   -2.0,  999.0,  999.0,  999.0,  999.0,  999.0,  999.0,   -2.3,  999.0,  999.0,  999.0,  999.0,  999.0,  999.0
1994/02/27 21:50,   -4.4,   -4.4,   -4.4,   -4.3,   -4.3,   -4.3,   -4.3,   -4.1,   -4.1,   -4.0,   -3.9,   -3.9,   -3.8,   -3.6,   -3.4,   -3.3,   -3.1,   -3.0,   -2.9,   -3.2,   -2.4,   -6.1,   -5.0,   -5.6,   -6.4,   -6.2,   -6.3,   -6.5,   -6.2,   -6.3,   -6.1,   -5.8,   -5.5,   -5.4,   -5.3,   -5.7,   -5.8,   -5.7,   -4.8,   -5.2,   -5.4,   -4.6,   -4.0,   -2.8,   -2.1,   -1.9,   -1.7,   -1.5,   -1.4,   -1.2,   -0.7,   -0.9,   -1.3,  999.0,  999.0,  999.0,  999.0,  999.0
1994/02/27 22:00,   -4.4,   -4.1,   -4.0,   -4.1,   -3.6,   -3.7,   -3.8,   -4.1,   -3.7,   -4.1,   -4.0,   -4.0,   -4.0,   -4.0,   -3.8,   -3.8,   -3.6,   -3.5,   -3.7,   -3.5,   -3.1,   -3.3,   -3.1,   -3.1,   -3.4,   -3.0,   -3.2,   -2.3,   -2.6,  999.0,   -2.9,  999.0,  999.0,  999.0,  999.0,  999.0,  999.0,  999.0,  999.0,  999.0,  999.0,  999.0,  999.0,   -2.2,   -1.4,   -0.6,   -3.4,  999.0,  999.0,  999.0,  999.0,  999.0,  999.0,  999.0,   -3.4,  999.0,  999.0,  999.0
1994/02/27 22:10,   -4.1,   -2.6,   -1.8,   -3.2,  999.0,   -4.5,   -3.6,   -3.2,   -3.9,   -3.9,   -3.8,   -3.8,   -3.7,   -3.6,   -3.5,   -3.4,   -3.3,   -3.3,   -3.3,   -3.1,   -3.1,   -2.6,   -2.6,   -2.9,   -2.4,  999.0,   -2.4,   -2.4,  999.0,  999.0,  999.0,  999.0,  999.0,  999.0,  999.0,  999.0,  999.0,  999.0,  999.0,  999.0,  999.0,  999.0,   -3.0,  999.0,  999.0,  999.0,  999.0,  999.0,  999.0,  999.0,  999.0,  999.0,  999.0,  999.0,  999.0,  999.0,  999.0,  999.0
1994/02/27 22:20,   -5.2,   -5.2,   -5.2,   -5.2,   -5.1,   -5.1,   -4.9,   -4.8,   -4.7,   -4.6,   -4.5,   -4.4,   -4.4,   -4.3,   -4.2,   -4.1,   -4.0,   -3.9,   -3.7,   -3.6,   -3.6,   -3.5,   -3.5,   -3.1,   -3.2,   -3.0,  999.0,  999.0,  999.0,   -2.8,  999.0,  999.0,  999.0,  999.0,  999.0,  999.0,  999.0,   -2.8,  999.0,  999.0,  999.0,  999.0,  999.0,  999.0,  999.0,  999.0,  999.0,  999.0,  999.0,  999.0,  999.0,  999.0,  999.0,  999.0,  999.0,  999.0,  999.0,  999.0
1994/02/27 22:30,   -5.1,   -5.1,   -5.1,   -5.0,   -4.9,   -4.9,   -4.7,   -4.6,   -4.5,   -4.4,   -4.3,   -4.1,   -4.0,   -3.9,   -3.7,   -3.7,   -3.5,   -3.3,   -3.2,   -3.1,   -3.0,   -3.2,   -2.6,  999.0,  999.0,  999.0,  999.0,  999.0,  999.0,  999.0,  999.0,  999.0,  999.0,   -3.1,  999.0,  999.0,  999.0,  999.0,  999.0,  999.0,  999.0,  999.0,  999.0,  999.0,  999.0,  999.0,  999.0,  999.0,  999.0,  999.0,  999.0,  999.0,  999.0,  999.0,  999.0,  999.0,  999.0,  999.0
1994/02/27 22:40,   -5.3,   -5.3,   -5.3,   -5.3,   -5.3,   -5.3,   -5.2,   -5.1,   -5.0,   -4.9,   -4.7,   -4.5,   -4.4,   -4.3,   -4.3,   -4.1,   -4.0,   -3.9,   -3.7,   -3.5,   -3.6,   -3.3,   -3.5,   -3.0,   -3.1,  999.0,  999.0,   -3.0,   -3.5,  999.0,  999.0,  999.0,  999.0,  999.0,   -2.1,  999.0,  999.0,  999.0,   -3.7,  999.0,   -2.6,  999.0,  999.0,  999.0,  999.0,  999.0,  999.0,  999.0,  999.0,   -3.7,  999.0,  999.0,   -2.4,  999.0,  999.0,  999.0,  999.0,  999.0
1994/02/27 22:50,   -5.6,   -6.7,   -6.3,   -6.4,   -6.2,   -6.1,   -6.0,   -5.8,   -5.7,   -5.7,   -5.8,   -5.8,   -5.6,   -5.5,   -5.3,   -5.1,   -4.8,   -4.7,   -4.6,   -4.3,   -4.2,   -4.0,   -3.9,   -3.9,   -3.8,   -3.4,   -3.8,   -4.0,  999.0,  999.0,   -2.9,  999.0,  999.0,   -2.4,  999.0,  999.0,  999.0,  999.0,  999.0,  999.0,  999.0,  999.0,  999.0,   -3.8,  999.0,  999.0,  999.0,  999.0,  999.0,  999.0,  999.0,  999.0,  999.0,  999.0,  999.0,  999.0,  999.0,  999.0
1994/02/27 23:00,    0.0,  999.0,    0.3,   -0.1,    0.3,   -1.8,   -1.6,   -2.3,   -1.9,   -1.9,   -3.3,   -3.8,  999.0,   -3.3,   -2.4,   -2.5,   -3.7,   -5.8,   -3.0,   -2.4,   -3.1,   -5.2,   -5.3,   -5.1,   -5.0,   -5.1,   -5.0,   -4.9,   -4.6,  999.0,  999.0,  999.0,  999.0,   -2.8,  999.0,  999.0,   -3.7,   -5.1,  999.0,  999.0,  999.0,  999.0,  999.0,  999.0,  999.0,  999.0,    1.5,  999.0,  999.0,  999.0,  999.0,  999.0,  999.0,  999.0,  999.0,  999.0,  999.0,  999.0
1994/02/27 23:10,   -0.2,  999.0,    0.1,    0.6,    0.8,    0.5,    0.4,    0.2,    1.3,    0.2,    0.1,   -0.0,    0.2,   -0.1,    0.0,   -0.2,  999.0,  999.0,    0.1,    0.5,  999.0,    0.1,  999.0,  999.0,  999.0,  999.0,   -0.1,  999.0,  999.0,  999.0,  999.0,  999.0,  999.0,  999.0,  999.0,  999.0,  999.0,  999.0,  999.0,  999.0,  999.0,  999.0,  999.0,  999.0,  999.0,  999.0,  999.0,    0.7,  999.0,  999.0,  999.0,  999.0,  999.0,  999.0,  999.0,  999.0,  999.0,  999.0
1994/02/27 23:20,    0.2,    0.2,    0.4,    0.3,    0.7,   -0.0,    0.3,    0.3,    0.0,   -0.1,    0.0,   -0.5,    0.0,    0.0,    0.2,    0.2,  999.0,   -0.1,    0.7,    0.9,    0.4,  999.0,  999.0,   -0.0,  999.0,  999.0,  999.0,    1.6,    1.7,  999.0,  999.0,  999.0,  999.0,  999.0,  999.0,  999.0,  999.0,  999.0,  999.0,  999.0,  999.0,  999.0,  999.0,  999.0,  999.0,  999.0,  999.0,  999.0,  999.0,  999.0,  999.0,  999.0,  999.0,  999.0,    0.4,  999.0,  999.0,  999.0
1994/02/27 23:30,   -0.3,   -0.2,   -0.6,    0.2,    0.1,    0.1,   -0.2,    0.0,    0.1,  999.0,    0.1,   -0.1,    0.0,    0.1,    0.1,    0.1,  999.0,   -0.1,    0.1,    0.1,  999.0,    0.2,  999.0,    2.2,   -0.1,  999.0,  999.0,  999.0,  999.0,  999.0,  999.0,  999.0,  999.0,  999.0,  999.0,  999.0,  999.0,    1.1,  999.0,  999.0,    0.6,  999.0,    1.4,  999.0,  999.0,  999.0,  999.0,  999.0,   -0.0,  999.0,  999.0,  999.0,  999.0,  999.0,  999.0,  999.0,  999.0,  999.0
1994/02/27 23:40,   -0.5,  999.0,    0.2,   -0.1,  999.0,  999.0,    0.1,   -0.2,    0.0,    0.2,    0.1,   -0.0,   -0.1,    0.1,    0.0,    0.0,    0.2,    0.0,    0.0,    0.1,  999.0,  999.0,  999.0,  999.0,  999.0,  999.0,  999.0,  999.0,  999.0,  999.0,  999.0,  999.0,  999.0,    0.4,  999.0,  999.0,  999.0,  999.0,  999.0,  999.0,  999.0,  999.0,    0.5,  999.0,  999.0,  999.0,  999.0,  999.0,  999.0,  999.0,    0.6,  999.0,  999.0,  999.0,  999.0,  999.0,    0.6,    0.6
1994/02/27 23:50,   -0.6,  999.0,   -0.2,    0.1,    0.6,   -0.5,    0.2,    0.3,    0.1,    0.2,    0.4,   -0.1,    0.1,    0.1,    0.3,    0.3,    0.7,    0.2,    0.1,    0.1,  999.0,    0.1,  999.0,  999.0,    1.1,  999.0,  999.0,   -0.1,   -0.3,  999.0,  999.0,  999.0,  999.0,  999.0,  999.0,  999.0,  999.0,  999.0,  999.0,  999.0,  999.0,    0.7,  999.0,  999.0,  999.0,  999.0,  999.0,  999.0,  999.0,  999.0,  999.0,  999.0,  999.0,    1.0,  999.0,  999.0,    1.1,  999.0
